Time,TemperatureF,DewpointF,PressureIn,WindDirection,WindDirectionDegrees,WindSpeedMPH,WindSpeedGustMPH,Humidity,HourlyPrecipIn,Conditions,Clouds,dailyrainin,SoftwareType,DateUTC
2013-08-13 00:02:00,62.9,53.7,29.98,SW,229,2.5,5.8,72,0.00,RA,,0.00,WeatherDisplay:10.37,2013-08-13 05:02:00,
2013-08-13 00:03:00,62.9,53.7,29.98,East,89,3.8,6.9,72,0.00,RA,,0.00,WeatherDisplay:10.37,2013-08-13 05:03:00,
2013-08-13 00:04:00,62.9,53.7,29.98,East,95,4.1,6.9,72,0.00,RA,,0.00,WeatherDisplay:10.37,2013-08-13 05:04:00,
2013-08-13 00:07:00,62.9,54.1,29.98,ENE,73,3.7,6.9,73,0.00,RA,,0.00,WeatherDisplay:10.37,2013-08-13 05:07:00,
2013-08-13 00:09:00,62.7,53.9,29.98,ENE,68,6.0,9.2,73,0.00,RA,,0.00,WeatherDisplay:10.37,2013-08-13 05:09:00,
2013-08-13 00:10:00,62.8,54.0,29.98,ENE,73,3.7,11.5,73,0.00,RA,,0.00,WeatherDisplay:10.37,2013-08-13 05:10:00,
2013-08-13 00:12:00,62.7,53.9,29.98,NE,35,3.7,5.8,73,0.00,CLR,,0.00,WeatherDisplay:10.37,2013-08-13 05:12:00,
2013-08-13 00:14:00,62.5,53.7,29.99,ESE,114,2.1,8.1,73,0.00,CLR,,0.00,WeatherDisplay:10.37,2013-08-13 05:14:00,
2013-08-13 00:15:00,62.6,53.8,29.99,NE,44,2.2,6.4,73,0.00,CLR,,0.00,WeatherDisplay:10.37,2013-08-13 05:15:00,
2013-08-13 00:18:00,62.4,54.0,29.99,East,95,3.3,6.9,74,0.00,CLR,,0.00,WeatherDisplay:10.37,2013-08-13 05:18:00,
2013-08-13 00:19:00,62.4,54.0,29.99,NE,49,3.0,4.6,74,0.00,CLR,,0.00,WeatherDisplay:10.37,2013-08-13 05:19:00,
2013-08-13 00:20:00,62.3,53.9,29.99,ESE,107,3.2,6.9,74,0.00,CLR,,0.00,WeatherDisplay:10.37,2013-08-13 05:20:00,
2013-08-13 00:23:00,62.3,53.9,29.99,NNE,27,4.2,6.3,74,0.00,CLR,,0.00,WeatherDisplay:10.37,2013-08-13 05:23:00,
2013-08-13 00:24:00,62.1,53.7,29.99,East,80,3.0,6.9,74,0.00,CLR,,0.00,WeatherDisplay:10.37,2013-08-13 05:24:00,
2013-08-13 00:25:00,62.1,53.7,29.99,NE,56,3.4,4.6,74,0.00,CLR,,0.00,WeatherDisplay:10.37,2013-08-13 05:25:00,
2013-08-13 00:28:00,62.0,53.6,29.99,NE,56,4.9,6.9,74,0.00,CLR,,0.00,WeatherDisplay:10.37,2013-08-13 05:28:00,
2013-08-13 00:29:00,62.0,53.6,29.99,NE,34,3.3,5.8,74,0.00,CLR,,0.00,WeatherDisplay:10.37,2013-08-13 05:29:00,
2013-08-13 00:30:00,61.9,53.9,29.99,ESE,106,4.8,9.2,75,0.00,CLR,,0.00,WeatherDisplay:10.37,2013-08-13 05:30:00,
2013-08-13 00:31:00,61.9,53.9,29.99,ESE,116,3.8,9.2,75,0.00,CLR,,0.00,WeatherDisplay:10.37,2013-08-13 05:31:00,
2013-08-13 00:33:00,61.8,53.8,29.99,ENE,66,0.9,4.6,75,0.00,CLR,,0.00,WeatherDisplay:10.37,2013-08-13 05:33:00,
2013-08-13 00:34:00,61.7,53.7,29.99,NE,48,4.1,5.8,75,0.00,CLR,,0.00,WeatherDisplay:10.37,2013-08-13 05:34:00,
2013-08-13 00:35:00,61.7,53.7,29.99,SE,133,4.0,5.8,75,0.00,CLR,,0.00,WeatherDisplay:10.37,2013-08-13 05:35:00,
2013-08-13 00:36:00,61.7,53.7,29.99,NE,41,2.4,5.8,75,0.00,CLR,,0.00,WeatherDisplay:10.37,2013-08-13 05:36:00,
2013-08-13 00:38:00,61.6,53.6,29.99,NNE,24,3.8,5.8,75,0.00,CLR,,0.00,WeatherDisplay:10.37,2013-08-13 05:38:00,
2013-08-13 00:39:00,61.5,53.5,29.99,ENE,76,2.4,4.6,75,0.00,CLR,,0.00,WeatherDisplay:10.37,2013-08-13 05:39:00,
2013-08-13 00:40:00,61.6,53.6,29.99,NE,42,2.1,4.6,75,0.00,CLR,,0.00,WeatherDisplay:10.37,2013-08-13 05:40:00,
2013-08-13 00:41:00,61.5,53.5,29.99,NE,40,1.6,4.6,75,0.00,CLR,,0.00,WeatherDisplay:10.37,2013-08-13 05:41:00,
2013-08-13 00:43:00,61.4,53.8,29.99,ENE,73,1.6,4.0,76,0.00,CLR,,0.00,WeatherDisplay:10.37,2013-08-13 05:43:00,
2013-08-13 00:45:00,61.4,53.8,29.99,North,357,3.5,6.5,76,0.00,CLR,,0.00,WeatherDisplay:10.37,2013-08-13 05:45:00,
2013-08-13 00:46:00,61.4,53.8,29.99,NE,56,3.4,6.9,76,0.00,CLR,,0.00,WeatherDisplay:10.37,2013-08-13 05:46:00,
2013-08-13 00:48:00,61.2,53.6,29.99,NNE,30,2.1,5.8,76,0.00,CLR,,0.00,WeatherDisplay:10.37,2013-08-13 05:48:00,
2013-08-13 00:50:00,61.3,53.7,29.99,East,90,3.0,3.5,76,0.00,CLR,,0.00,WeatherDisplay:10.37,2013-08-13 05:50:00,
2013-08-13 00:51:00,61.1,53.5,29.99,ENE,68,2.7,5.5,76,0.00,CLR,,0.00,WeatherDisplay:10.37,2013-08-13 05:51:00,
2013-08-13 00:54:00,61.0,53.7,29.99,East,99,2.6,4.6,77,0.00,CLR,,0.00,WeatherDisplay:10.37,2013-08-13 05:54:00,
2013-08-13 00:55:00,61.0,53.7,29.99,ESE,106,4.3,6.9,77,0.00,CLR,,0.00,WeatherDisplay:10.37,2013-08-13 05:55:00,
2013-08-13 00:56:00,60.9,53.6,29.99,ENE,78,3.9,6.9,77,0.00,CLR,,0.00,WeatherDisplay:10.37,2013-08-13 05:56:00,
2013-08-13 00:57:00,60.9,53.6,29.99,ENE,68,2.2,6.9,77,0.00,CLR,,0.00,WeatherDisplay:10.37,2013-08-13 05:57:00,
2013-08-13 00:59:00,60.8,53.5,29.99,ESE,102,2.9,4.6,77,0.00,CLR,,0.00,WeatherDisplay:10.37,2013-08-13 05:59:00,
2013-08-13 01:00:00,60.8,53.5,29.99,SE,124,2.5,3.9,77,0.00,CLR,,0.00,WeatherDisplay:10.37,2013-08-13 06:00:00,
2013-08-13 01:01:00,60.8,53.9,29.99,SE,130,3.8,4.8,78,0.00,CLR,,0.00,WeatherDisplay:10.37,2013-08-13 06:01:00,
2013-08-13 01:02:00,60.8,53.9,29.99,NNE,28,1.0,6.9,78,0.00,CLR,,0.00,WeatherDisplay:10.37,2013-08-13 06:02:00,
2013-08-13 01:04:00,60.5,53.6,29.99,NE,38,2.4,3.5,78,0.00,CLR,,0.00,WeatherDisplay:10.37,2013-08-13 06:04:00,
2013-08-13 01:05:00,60.6,53.7,29.99,East,95,2.1,3.5,78,0.00,CLR,,0.00,WeatherDisplay:10.37,2013-08-13 06:05:00,
2013-08-13 01:06:00,60.6,53.7,29.99,ENE,58,2.0,3.5,78,0.00,CLR,,0.00,WeatherDisplay:10.37,2013-08-13 06:06:00,
2013-08-13 01:07:00,60.6,53.7,30.00,ESE,104,2.2,4.6,78,0.00,CLR,,0.00,WeatherDisplay:10.37,2013-08-13 06:07:00,
2013-08-13 01:10:00,60.5,53.6,29.99,SE,137,2.3,4.4,78,0.00,CLR,,0.00,WeatherDisplay:10.37,2013-08-13 06:10:00,
2013-08-13 01:11:00,60.5,53.6,30.00,East,100,3.6,5.8,78,0.00,CLR,,0.00,WeatherDisplay:10.37,2013-08-13 06:11:00,
2013-08-13 01:12:00,60.5,53.6,30.00,ESE,112,2.4,5.8,78,0.00,CLR,,0.00,WeatherDisplay:10.37,2013-08-13 06:12:00,
2013-08-13 01:13:00,60.3,53.4,29.99,East,80,2.8,4.6,78,0.00,CLR,,0.00,WeatherDisplay:10.37,2013-08-13 06:13:00,
2013-08-13 01:15:00,60.3,53.4,30.00,ENE,68,3.0,4.6,78,0.00,CLR,,0.00,WeatherDisplay:10.37,2013-08-13 06:15:00,
2013-08-13 01:16:00,60.3,53.8,30.00,East,95,3.0,5.8,79,0.00,CLR,,0.00,WeatherDisplay:10.37,2013-08-13 06:16:00,
2013-08-13 01:17:00,60.3,53.8,30.00,ESE,106,1.1,5.8,79,0.00,CLR,,0.00,WeatherDisplay:10.37,2013-08-13 06:17:00,
2013-08-13 01:18:00,60.3,53.8,30.00,NNE,27,2.7,3.5,79,0.00,CLR,,0.00,WeatherDisplay:10.37,2013-08-13 06:18:00,
2013-08-13 01:20:00,60.1,53.6,30.00,East,86,2.5,6.9,79,0.00,CLR,,0.00,WeatherDisplay:10.37,2013-08-13 06:20:00,
2013-08-13 01:21:00,60.2,53.7,30.00,ESE,120,2.5,6.9,79,0.00,CLR,,0.00,WeatherDisplay:10.37,2013-08-13 06:21:00,
2013-08-13 01:22:00,60.1,53.6,30.00,SE,137,3.0,4.6,79,0.00,CLR,,0.00,WeatherDisplay:10.37,2013-08-13 06:22:00,
2013-08-13 01:23:00,60.0,53.5,30.00,NNE,13,1.6,3.5,79,0.00,CLR,,0.00,WeatherDisplay:10.37,2013-08-13 06:23:00,
2013-08-13 01:25:00,60.0,53.8,30.00,NNE,28,5.3,8.1,80,0.00,CLR,,0.00,WeatherDisplay:10.37,2013-08-13 06:25:00,
2013-08-13 01:26:00,59.9,53.7,30.00,SSE,151,3.7,6.9,80,0.00,CLR,,0.00,WeatherDisplay:10.37,2013-08-13 06:26:00,
2013-08-13 01:27:00,60.0,53.8,30.00,WNW,299,2.3,6.9,80,0.00,CLR,,0.00,WeatherDisplay:10.37,2013-08-13 06:27:00,
2013-08-13 01:28:00,59.8,53.6,30.00,South,182,1.9,2.3,80,0.00,CLR,,0.00,WeatherDisplay:10.37,2013-08-13 06:28:00,
2013-08-13 01:31:00,59.8,53.6,30.00,East,90,2.0,4.6,80,0.00,CLR,,0.00,WeatherDisplay:10.37,2013-08-13 06:31:00,
2013-08-13 01:32:00,59.8,53.6,30.00,NE,51,2.3,4.6,80,0.00,CLR,,0.00,WeatherDisplay:10.37,2013-08-13 06:32:00,
2013-08-13 01:33:00,59.7,53.5,30.00,North,8,0.6,2.3,80,0.00,CLR,,0.00,WeatherDisplay:10.37,2013-08-13 06:33:00,
2013-08-13 01:36:00,59.8,54.0,30.00,NNE,14,1.3,3.5,81,0.00,CLR,,0.00,WeatherDisplay:10.37,2013-08-13 06:36:00,
2013-08-13 01:37:00,59.8,54.0,30.00,NNE,14,0.0,0.0,81,0.00,CLR,,0.00,WeatherDisplay:10.37,2013-08-13 06:37:00,
2013-08-13 01:38:00,59.7,53.9,30.00,NNE,14,0.0,0.7,81,0.00,CLR,,0.00,WeatherDisplay:10.37,2013-08-13 06:38:00,
2013-08-13 01:39:00,59.7,53.9,30.00,ENE,58,1.8,3.7,81,0.00,CLR,,0.00,WeatherDisplay:10.37,2013-08-13 06:39:00,
2013-08-13 01:41:00,59.8,54.0,30.00,East,83,3.7,5.8,81,0.00,CLR,,0.00,WeatherDisplay:10.37,2013-08-13 06:41:00,
2013-08-13 01:43:00,59.8,54.0,30.00,East,80,3.2,6.9,81,0.00,CLR,,0.00,WeatherDisplay:10.37,2013-08-13 06:43:00,
2013-08-13 01:44:00,59.9,54.1,30.00,East,92,2.6,4.6,81,0.00,CLR,,0.00,WeatherDisplay:10.37,2013-08-13 06:44:00,
2013-08-13 01:46:00,59.7,53.9,30.00,NE,55,2.1,4.6,81,0.00,CLR,,0.00,WeatherDisplay:10.37,2013-08-13 06:46:00,
2013-08-13 01:47:00,60.0,54.2,30.00,ESE,109,2.2,4.6,81,0.00,CLR,,0.00,WeatherDisplay:10.37,2013-08-13 06:47:00,
2013-08-13 01:48:00,59.7,54.2,30.00,ENE,76,4.0,8.1,82,0.00,CLR,,0.00,WeatherDisplay:10.37,2013-08-13 06:48:00,
2013-08-13 01:49:00,59.9,54.1,30.00,WNW,301,1.4,3.5,81,0.00,CLR,,0.00,WeatherDisplay:10.37,2013-08-13 06:49:00,
2013-08-13 01:51:00,59.9,54.1,30.00,NE,55,0.5,2.3,81,0.00,CLR,,0.00,WeatherDisplay:10.37,2013-08-13 06:51:00,
2013-08-13 01:52:00,59.9,54.1,30.00,ENE,69,2.5,3.5,81,0.00,CLR,,0.00,WeatherDisplay:10.37,2013-08-13 06:52:00,
2013-08-13 01:53:00,59.9,54.1,30.00,ESE,106,1.0,2.7,81,0.00,CLR,,0.00,WeatherDisplay:10.37,2013-08-13 06:53:00,
2013-08-13 01:54:00,60.0,54.2,30.00,East,100,1.4,2.3,81,0.00,CLR,,0.00,WeatherDisplay:10.37,2013-08-13 06:54:00,
2013-08-13 01:56:00,59.9,54.1,30.00,NE,44,1.6,3.5,81,0.00,CLR,,0.00,WeatherDisplay:10.37,2013-08-13 06:56:00,
2013-08-13 01:57:00,60.1,54.2,30.00,ENE,69,1.3,3.7,81,0.00,CLR,,0.00,WeatherDisplay:10.37,2013-08-13 06:57:00,
2013-08-13 01:58:00,60.1,54.2,30.00,ENE,64,2.9,4.6,81,0.00,CLR,,0.00,WeatherDisplay:10.37,2013-08-13 06:58:00,
2013-08-13 01:59:00,60.0,54.2,30.00,ENE,64,1.9,4.6,81,0.00,CLR,,0.00,WeatherDisplay:10.37,2013-08-13 06:59:00,
2013-08-13 02:01:00,60.2,54.3,30.00,ESE,104,2.5,3.5,81,0.00,CLR,,0.00,WeatherDisplay:10.37,2013-08-13 07:01:00,
2013-08-13 02:03:00,60.2,54.3,30.00,NNW,336,1.9,3.5,81,0.00,CLR,,0.00,WeatherDisplay:10.37,2013-08-13 07:03:00,
2013-08-13 02:04:00,60.2,54.3,30.00,NW,319,0.5,3.5,81,0.00,CLR,,0.00,WeatherDisplay:10.37,2013-08-13 07:04:00,
2013-08-13 02:05:00,60.2,54.3,30.00,North,10,1.4,2.3,81,0.00,CLR,,0.00,WeatherDisplay:10.37,2013-08-13 07:05:00,
2013-08-13 02:06:00,60.3,54.4,30.00,NE,51,4.4,5.8,81,0.00,CLR,,0.00,WeatherDisplay:10.37,2013-08-13 07:06:00,
2013-08-13 02:08:00,60.3,54.4,30.01,NE,55,2.6,4.6,81,0.00,CLR,,0.00,WeatherDisplay:10.37,2013-08-13 07:08:00,
2013-08-13 02:09:00,60.3,54.4,30.01,ENE,73,3.7,4.6,81,0.00,CLR,,0.00,WeatherDisplay:10.37,2013-08-13 07:09:00,
2013-08-13 02:10:00,60.2,54.3,30.01,NE,44,1.5,4.6,81,0.00,CLR,,0.00,WeatherDisplay:10.37,2013-08-13 07:10:00,
2013-08-13 02:12:00,60.3,54.4,30.01,ESE,110,3.0,6.9,81,0.00,CLR,,0.00,WeatherDisplay:10.37,2013-08-13 07:12:00,
2013-08-13 02:13:00,60.4,54.5,30.01,NE,41,3.0,5.8,81,0.00,CLR,,0.00,WeatherDisplay:10.37,2013-08-13 07:13:00,
2013-08-13 02:14:00,60.3,54.8,30.01,ESE,103,0.8,5.8,82,0.00,CLR,,0.00,WeatherDisplay:10.37,2013-08-13 07:14:00,
2013-08-13 02:15:00,60.2,54.7,30.01,East,90,3.4,5.0,82,0.00,CLR,,0.00,WeatherDisplay:10.37,2013-08-13 07:15:00,
2013-08-13 02:17:00,60.4,54.5,30.01,NNE,27,3.0,10.4,81,0.00,CLR,,0.00,WeatherDisplay:10.37,2013-08-13 07:17:00,
2013-08-13 02:18:00,60.4,54.5,30.01,NE,56,4.8,7.0,81,0.00,CLR,,0.00,WeatherDisplay:10.37,2013-08-13 07:18:00,
2013-08-13 02:19:00,60.4,54.5,30.01,ENE,71,4.8,8.1,81,0.00,CLR,,0.00,WeatherDisplay:10.37,2013-08-13 07:19:00,
2013-08-13 02:20:00,60.3,54.4,30.01,NE,49,2.5,8.1,81,0.00,CLR,,0.00,WeatherDisplay:10.37,2013-08-13 07:20:00,
2013-08-13 02:22:00,60.3,54.4,30.01,SE,128,2.9,8.1,81,0.00,CLR,,0.00,WeatherDisplay:10.37,2013-08-13 07:22:00,
2013-08-13 02:23:00,60.3,54.4,30.01,ESE,112,3.7,6.5,81,0.00,CLR,,0.00,WeatherDisplay:10.37,2013-08-13 07:23:00,
2013-08-13 02:25:00,60.4,54.5,30.01,North,360,3.5,6.9,81,0.00,CLR,,0.00,WeatherDisplay:10.37,2013-08-13 07:25:00,
2013-08-13 02:27:00,60.3,54.4,30.01,East,100,1.4,3.5,81,0.00,CLR,,0.00,WeatherDisplay:10.37,2013-08-13 07:27:00,
2013-08-13 02:28:00,60.3,54.4,30.01,ENE,75,1.3,4.5,81,0.00,CLR,,0.00,WeatherDisplay:10.37,2013-08-13 07:28:00,
2013-08-13 02:30:00,60.3,54.1,30.01,ENE,66,2.1,3.5,80,0.00,CLR,,0.00,WeatherDisplay:10.37,2013-08-13 07:30:00,
2013-08-13 02:31:00,60.3,54.1,30.01,East,90,2.4,3.5,80,0.00,CLR,,0.00,WeatherDisplay:10.37,2013-08-13 07:31:00,
2013-08-13 02:32:00,60.3,54.1,30.01,North,11,3.8,6.9,80,0.00,CLR,,0.00,WeatherDisplay:10.37,2013-08-13 07:32:00,
2013-08-13 02:33:00,60.2,54.0,30.01,ESE,107,1.8,4.6,80,0.00,CLR,,0.00,WeatherDisplay:10.37,2013-08-13 07:33:00,
2013-08-13 02:35:00,60.1,53.6,30.01,ENE,78,3.1,4.6,79,0.00,CLR,,0.00,WeatherDisplay:10.37,2013-08-13 07:35:00,
2013-08-13 02:36:00,60.1,53.6,30.01,ESE,117,2.5,7.1,79,0.00,CLR,,0.00,WeatherDisplay:10.37,2013-08-13 07:36:00,
2013-08-13 02:37:00,60.1,53.6,30.01,NE,37,3.7,6.9,79,0.00,CLR,,0.00,WeatherDisplay:10.37,2013-08-13 07:37:00,
2013-08-13 02:39:00,60.1,53.2,30.01,East,96,3.1,5.8,78,0.00,CLR,,0.00,WeatherDisplay:10.37,2013-08-13 07:39:00,
2013-08-13 02:41:00,59.8,52.9,30.01,SSE,154,3.1,5.8,78,0.00,CLR,,0.00,WeatherDisplay:10.37,2013-08-13 07:41:00,
2013-08-13 02:42:00,59.9,53.0,30.01,NE,54,2.9,6.9,78,0.00,CLR,,0.00,WeatherDisplay:10.37,2013-08-13 07:42:00,
2013-08-13 02:43:00,59.7,52.8,30.01,East,85,1.4,3.5,78,0.00,CLR,,0.00,WeatherDisplay:10.37,2013-08-13 07:43:00,
2013-08-13 02:44:00,59.6,52.4,30.01,ENE,78,5.0,9.2,77,0.00,CLR,,0.00,WeatherDisplay:10.37,2013-08-13 07:44:00,
2013-08-13 02:46:00,59.5,52.3,30.01,NW,323,3.8,6.9,77,0.00,CLR,,0.00,WeatherDisplay:10.37,2013-08-13 07:46:00,
2013-08-13 02:47:00,59.3,51.7,30.01,NE,44,6.8,11.5,76,0.00,CLR,,0.00,WeatherDisplay:10.37,2013-08-13 07:47:00,
2013-08-13 02:48:00,59.4,51.8,30.01,East,99,4.7,11.5,76,0.00,CLR,,0.00,WeatherDisplay:10.37,2013-08-13 07:48:00,
2013-08-13 02:49:00,59.2,51.6,30.01,NNE,14,3.8,6.9,76,0.00,CLR,,0.00,WeatherDisplay:10.37,2013-08-13 07:49:00,
2013-08-13 02:51:00,59.1,51.5,30.02,ENE,58,3.1,4.6,76,0.00,CLR,,0.00,WeatherDisplay:10.37,2013-08-13 07:51:00,
2013-08-13 02:53:00,59.1,51.5,30.02,ENE,71,2.1,3.5,76,0.00,CLR,,0.00,WeatherDisplay:10.37,2013-08-13 07:53:00,
2013-08-13 02:55:00,58.9,51.3,30.02,North,7,2.8,3.5,76,0.00,CLR,,0.00,WeatherDisplay:10.37,2013-08-13 07:55:00,
2013-08-13 02:56:00,58.8,51.2,30.02,ESE,110,1.6,3.5,76,0.00,CLR,,0.00,WeatherDisplay:10.37,2013-08-13 07:56:00,
2013-08-13 02:58:00,58.7,51.2,30.02,NNE,13,1.1,2.3,76,0.00,CLR,,0.00,WeatherDisplay:10.37,2013-08-13 07:58:00,
2013-08-13 03:00:00,58.7,51.2,30.01,East,95,1.4,3.5,76,0.00,CLR,,0.00,WeatherDisplay:10.37,2013-08-13 08:00:00,
2013-08-13 03:01:00,58.6,51.1,30.02,ESE,112,1.7,2.3,76,0.00,CLR,,0.00,WeatherDisplay:10.37,2013-08-13 08:01:00,
2013-08-13 03:02:00,58.6,51.1,30.02,ENE,65,1.4,2.3,76,0.00,CLR,,0.00,WeatherDisplay:10.37,2013-08-13 08:02:00,
2013-08-13 03:03:00,58.5,51.0,30.01,East,85,3.2,3.6,76,0.00,CLR,,0.00,WeatherDisplay:10.37,2013-08-13 08:03:00,
2013-08-13 03:05:00,58.4,50.9,30.01,East,83,2.3,8.1,76,0.00,CLR,,0.00,WeatherDisplay:10.37,2013-08-13 08:05:00,
2013-08-13 03:07:00,58.4,50.9,30.02,East,88,2.1,3.5,76,0.00,CLR,,0.00,WeatherDisplay:10.37,2013-08-13 08:07:00,
2013-08-13 03:08:00,58.4,50.9,30.02,NE,40,2.2,4.6,76,0.00,CLR,,0.00,WeatherDisplay:10.37,2013-08-13 08:08:00,
2013-08-13 03:10:00,58.3,50.8,30.02,SSE,152,2.5,5.8,76,0.00,CLR,,0.00,WeatherDisplay:10.37,2013-08-13 08:10:00,
2013-08-13 03:12:00,58.3,50.8,30.02,East,86,1.1,5.8,76,0.00,CLR,,0.00,WeatherDisplay:10.37,2013-08-13 08:12:00,
2013-08-13 03:13:00,58.2,50.7,30.02,ENE,78,3.6,3.6,76,0.00,CLR,,0.00,WeatherDisplay:10.37,2013-08-13 08:13:00,
2013-08-13 03:15:00,58.2,50.7,30.02,West,275,0.9,3.5,76,0.00,CLR,,0.00,WeatherDisplay:10.37,2013-08-13 08:15:00,
2013-08-13 03:17:00,58.1,50.6,30.02,East,100,0.7,2.3,76,0.00,CLR,,0.00,WeatherDisplay:10.37,2013-08-13 08:17:00,
2013-08-13 03:18:00,58.0,50.5,30.02,ENE,69,0.5,2.3,76,0.00,CLR,,0.00,WeatherDisplay:10.37,2013-08-13 08:18:00,
2013-08-13 03:21:00,58.0,50.5,30.02,East,97,2.0,6.9,76,0.00,CLR,,0.00,WeatherDisplay:10.37,2013-08-13 08:21:00,
2013-08-13 03:23:00,57.9,50.4,30.02,East,96,0.9,2.7,76,0.00,CLR,,0.00,WeatherDisplay:10.37,2013-08-13 08:23:00,
2013-08-13 03:26:00,57.8,50.6,30.02,North,353,1.2,2.3,77,0.00,CLR,,0.00,WeatherDisplay:10.37,2013-08-13 08:26:00,
2013-08-13 03:28:00,57.7,50.5,30.02,East,100,1.7,2.8,77,0.00,CLR,,0.00,WeatherDisplay:10.37,2013-08-13 08:28:00,
2013-08-13 03:29:00,57.6,50.4,30.02,East,79,4.5,8.1,77,0.00,CLR,,0.00,WeatherDisplay:10.37,2013-08-13 08:29:00,
2013-08-13 03:31:00,57.5,50.3,30.02,NE,38,2.2,3.9,77,0.00,CLR,,0.00,WeatherDisplay:10.37,2013-08-13 08:31:00,
2013-08-13 03:33:00,57.2,50.1,30.02,NE,38,2.2,4.6,77,0.00,CLR,,0.00,WeatherDisplay:10.37,2013-08-13 08:33:00,
2013-08-13 03:34:00,57.2,50.1,30.02,ENE,69,1.5,3.5,77,0.00,CLR,,0.00,WeatherDisplay:10.37,2013-08-13 08:34:00,
2013-08-13 03:36:00,57.1,50.0,30.03,ENE,76,3.1,3.5,77,0.00,CLR,,0.00,WeatherDisplay:10.37,2013-08-13 08:36:00,
2013-08-13 03:38:00,57.0,49.9,30.03,East,99,2.6,5.8,77,0.00,CLR,,0.00,WeatherDisplay:10.37,2013-08-13 08:38:00,
2013-08-13 03:39:00,57.1,50.0,30.03,NE,55,2.1,4.6,77,0.00,CLR,,0.00,WeatherDisplay:10.37,2013-08-13 08:39:00,
2013-08-13 03:42:00,56.8,49.7,30.03,ENE,73,2.7,6.9,77,0.00,CLR,,0.00,WeatherDisplay:10.37,2013-08-13 08:42:00,
2013-08-13 03:43:00,56.7,49.6,30.03,East,85,3.1,5.8,77,0.00,CLR,,0.00,WeatherDisplay:10.37,2013-08-13 08:43:00,
2013-08-13 03:44:00,56.7,49.6,30.03,ENE,66,3.3,4.6,77,0.00,CLR,,0.00,WeatherDisplay:10.37,2013-08-13 08:44:00,
2013-08-13 03:47:00,56.4,49.3,30.03,ENE,64,0.0,0.0,77,0.00,CLR,,0.00,WeatherDisplay:10.37,2013-08-13 08:47:00,
2013-08-13 03:48:00,56.3,49.2,30.03,SE,133,1.9,4.8,77,0.00,CLR,,0.00,WeatherDisplay:10.37,2013-08-13 08:48:00,
2013-08-13 03:49:00,56.3,49.2,30.03,East,85,3.6,4.6,77,0.00,CLR,,0.00,WeatherDisplay:10.37,2013-08-13 08:49:00,
2013-08-13 03:50:00,56.3,49.2,30.03,East,92,0.9,4.6,77,0.00,CLR,,0.00,WeatherDisplay:10.37,2013-08-13 08:50:00,
2013-08-13 03:52:00,56.1,49.0,30.03,NE,44,1.5,5.8,77,0.00,CLR,,0.00,WeatherDisplay:10.37,2013-08-13 08:52:00,
2013-08-13 03:53:00,56.1,49.0,30.03,NE,42,1.2,2.9,77,0.00,CLR,,0.00,WeatherDisplay:10.37,2013-08-13 08:53:00,
2013-08-13 03:54:00,56.0,48.9,30.03,NE,56,2.0,2.2,77,0.00,CLR,,0.00,WeatherDisplay:10.37,2013-08-13 08:54:00,
2013-08-13 03:55:00,56.0,48.9,30.03,NNE,30,1.1,3.5,77,0.00,CLR,,0.00,WeatherDisplay:10.37,2013-08-13 08:55:00,
2013-08-13 03:57:00,55.8,48.7,30.03,East,89,0.9,2.8,77,0.00,CLR,,0.00,WeatherDisplay:10.37,2013-08-13 08:57:00,
2013-08-13 03:59:00,55.7,48.6,30.03,NE,37,2.2,3.5,77,0.00,CLR,,0.00,WeatherDisplay:10.37,2013-08-13 08:59:00,
2013-08-13 04:00:00,55.6,48.5,30.03,NNE,30,1.0,2.3,77,0.00,CLR,,0.00,WeatherDisplay:10.37,2013-08-13 09:00:00,
2013-08-13 04:03:00,55.4,48.3,30.03,North,354,2.1,3.5,77,0.00,CLR,,0.00,WeatherDisplay:10.37,2013-08-13 09:03:00,
2013-08-13 04:04:00,55.4,48.3,30.03,NE,47,2.5,3.5,77,0.00,CLR,,0.00,WeatherDisplay:10.37,2013-08-13 09:04:00,
2013-08-13 04:05:00,55.3,48.2,30.03,NE,47,0.0,3.5,77,0.00,CLR,,0.00,WeatherDisplay:10.37,2013-08-13 09:05:00,
2013-08-13 04:08:00,55.1,48.0,30.03,NE,47,0.0,0.0,77,0.00,CLR,,0.00,WeatherDisplay:10.37,2013-08-13 09:08:00,
2013-08-13 04:09:00,55.1,48.0,30.03,NE,47,0.0,0.0,77,0.00,CLR,,0.00,WeatherDisplay:10.37,2013-08-13 09:09:00,
2013-08-13 04:10:00,55.0,47.9,30.03,NE,47,0.0,0.0,77,0.00,CLR,,0.00,WeatherDisplay:10.37,2013-08-13 09:10:00,
2013-08-13 04:13:00,54.8,47.7,30.03,NE,47,0.0,0.0,77,0.00,CLR,,0.00,WeatherDisplay:10.37,2013-08-13 09:13:00,
2013-08-13 04:14:00,54.8,48.1,30.03,NE,47,0.0,0.0,78,0.00,CLR,,0.00,WeatherDisplay:10.37,2013-08-13 09:14:00,
2013-08-13 04:15:00,54.8,48.1,30.03,NE,47,0.0,0.0,78,0.00,CLR,,0.00,WeatherDisplay:10.37,2013-08-13 09:15:00,
2013-08-13 04:19:00,54.5,47.8,30.03,NNW,347,1.6,2.3,78,0.00,CLR,,0.00,WeatherDisplay:10.37,2013-08-13 09:19:00,
2013-08-13 04:20:00,54.4,47.7,30.03,NE,42,2.1,4.6,78,0.00,CLR,,0.00,WeatherDisplay:10.37,2013-08-13 09:20:00,
2013-08-13 04:25:00,54.2,47.5,30.04,NE,37,0.1,4.6,78,0.00,CLR,,0.00,WeatherDisplay:10.37,2013-08-13 09:25:00,
2013-08-13 04:26:00,54.1,47.4,30.04,NE,37,0.0,0.0,78,0.00,CLR,,0.00,WeatherDisplay:10.37,2013-08-13 09:26:00,
2013-08-13 04:30:00,53.9,47.5,30.04,NNE,16,0.0,0.0,79,0.00,CLR,,0.00,WeatherDisplay:10.37,2013-08-13 09:30:00,
2013-08-13 04:31:00,53.8,47.4,30.04,NNE,16,0.0,0.0,79,0.00,CLR,,0.00,WeatherDisplay:10.37,2013-08-13 09:31:00,
2013-08-13 04:32:00,53.7,47.3,30.04,NNE,16,0.0,0.5,79,0.00,CLR,,0.00,WeatherDisplay:10.37,2013-08-13 09:32:00,
2013-08-13 04:35:00,53.6,47.2,30.04,NNW,340,0.0,0.0,79,0.00,CLR,,0.00,WeatherDisplay:10.37,2013-08-13 09:35:00,
2013-08-13 04:36:00,53.6,47.2,30.04,North,360,0.5,0.6,79,0.00,CLR,,0.00,WeatherDisplay:10.37,2013-08-13 09:36:00,
2013-08-13 04:37:00,53.5,47.1,30.04,NE,54,0.5,2.3,79,0.00,CLR,,0.00,WeatherDisplay:10.37,2013-08-13 09:37:00,
2013-08-13 04:40:00,53.2,46.9,30.04,ENE,69,1.5,2.3,79,0.00,CLR,,0.00,WeatherDisplay:10.37,2013-08-13 09:40:00,
2013-08-13 04:41:00,53.2,46.9,30.04,WNW,284,0.9,2.3,79,0.00,CLR,,0.00,WeatherDisplay:10.37,2013-08-13 09:41:00,
2013-08-13 04:42:00,53.2,46.9,30.04,NNE,31,0.5,2.3,79,0.00,CLR,,0.00,WeatherDisplay:10.37,2013-08-13 09:42:00,
2013-08-13 04:46:00,52.9,46.6,30.04,NNW,340,2.2,4.6,79,0.00,CLR,,0.00,WeatherDisplay:10.37,2013-08-13 09:46:00,
2013-08-13 04:47:00,52.8,46.5,30.04,NE,34,2.0,4.6,79,0.00,CLR,,0.00,WeatherDisplay:10.37,2013-08-13 09:47:00,
2013-08-13 04:51:00,52.6,46.3,30.04,NW,312,2.3,3.5,79,0.00,CLR,,0.00,WeatherDisplay:10.37,2013-08-13 09:51:00,
2013-08-13 04:52:00,52.6,46.3,30.05,NNE,30,1.9,4.6,79,0.00,CLR,,0.00,WeatherDisplay:10.37,2013-08-13 09:52:00,
2013-08-13 04:57:00,52.4,45.7,30.05,NE,49,1.7,2.3,78,0.00,CLR,,0.00,WeatherDisplay:10.37,2013-08-13 09:57:00,
2013-08-13 04:58:00,52.4,45.7,30.05,NNE,27,0.1,1.2,78,0.00,CLR,,0.00,WeatherDisplay:10.37,2013-08-13 09:58:00,
2013-08-13 05:02:00,52.3,45.6,30.05,NNE,31,0.9,1.2,78,0.00,CLR,,0.00,WeatherDisplay:10.37,2013-08-13 10:02:00,
2013-08-13 05:03:00,52.3,45.6,30.05,NNE,27,0.3,2.3,78,0.00,CLR,,0.00,WeatherDisplay:10.37,2013-08-13 10:03:00,
2013-08-13 05:07:00,52.1,45.4,30.05,NE,44,0.0,0.0,78,0.00,CLR,,0.00,WeatherDisplay:10.37,2013-08-13 10:07:00,
2013-08-13 05:08:00,52.1,45.4,30.05,NE,44,0.0,0.0,78,0.00,CLR,,0.00,WeatherDisplay:10.37,2013-08-13 10:08:00,
2013-08-13 05:12:00,51.9,45.3,30.05,NE,41,0.2,1.2,78,0.00,CLR,,0.00,WeatherDisplay:10.37,2013-08-13 10:12:00,
2013-08-13 05:13:00,51.9,45.3,30.05,ENE,68,0.6,1.2,78,0.00,CLR,,0.00,WeatherDisplay:10.37,2013-08-13 10:13:00,
2013-08-13 05:14:00,51.8,45.2,30.05,NNE,32,0.6,1.2,78,0.00,CLR,,0.00,WeatherDisplay:10.37,2013-08-13 10:14:00,
2013-08-13 05:17:00,51.7,45.1,30.05,NE,35,1.0,3.5,78,0.00,CLR,,0.00,WeatherDisplay:10.37,2013-08-13 10:17:00,
2013-08-13 05:18:00,51.7,45.1,30.04,North,8,0.5,3.5,78,0.00,CLR,,0.00,WeatherDisplay:10.37,2013-08-13 10:18:00,
2013-08-13 05:19:00,51.6,45.0,30.04,NNE,30,1.2,2.3,78,0.00,CLR,,0.00,WeatherDisplay:10.37,2013-08-13 10:19:00,
2013-08-13 05:22:00,51.3,44.7,30.05,ENE,61,0.0,0.0,78,0.00,CLR,,0.00,WeatherDisplay:10.37,2013-08-13 10:22:00,
2013-08-13 05:23:00,51.3,44.7,30.05,NE,37,0.5,2.4,78,0.00,CLR,,0.00,WeatherDisplay:10.37,2013-08-13 10:23:00,
2013-08-13 05:24:00,51.3,44.7,30.05,East,80,1.5,3.5,78,0.00,CLR,,0.00,WeatherDisplay:10.37,2013-08-13 10:24:00,
2013-08-13 05:27:00,51.0,44.7,30.05,ESE,104,0.0,0.0,79,0.00,CLR,,0.00,WeatherDisplay:10.37,2013-08-13 10:27:00,
2013-08-13 05:28:00,51.1,44.8,30.05,ESE,104,0.0,0.0,79,0.00,CLR,,0.00,WeatherDisplay:10.37,2013-08-13 10:28:00,
2013-08-13 05:29:00,51.0,44.7,30.05,ESE,104,0.0,0.0,79,0.00,CLR,,0.00,WeatherDisplay:10.37,2013-08-13 10:29:00,
2013-08-13 05:30:00,51.0,44.7,30.05,ESE,104,0.0,0.0,79,0.00,CLR,,0.00,WeatherDisplay:10.37,2013-08-13 10:30:00,
2013-08-13 05:33:00,50.8,44.5,30.06,ESE,104,0.0,0.0,79,0.00,CLR,,0.00,WeatherDisplay:10.37,2013-08-13 10:33:00,
2013-08-13 05:34:00,50.7,44.4,30.06,ESE,104,0.0,0.0,79,0.00,CLR,,0.00,WeatherDisplay:10.37,2013-08-13 10:34:00,
2013-08-13 05:35:00,50.7,44.4,30.06,ESE,104,0.0,0.0,79,0.00,CLR,,0.00,WeatherDisplay:10.37,2013-08-13 10:35:00,
2013-08-13 05:38:00,50.6,44.7,30.06,NNE,28,0.9,3.5,80,0.00,CLR,,0.00,WeatherDisplay:10.37,2013-08-13 10:38:00,
2013-08-13 05:39:00,50.6,44.7,30.06,ENE,71,1.9,2.6,80,0.00,CLR,,0.00,WeatherDisplay:10.37,2013-08-13 10:39:00,
2013-08-13 05:40:00,50.4,44.5,30.06,NNE,18,1.1,3.5,80,0.00,CLR,,0.00,WeatherDisplay:10.37,2013-08-13 10:40:00,
2013-08-13 05:43:00,50.4,44.5,30.06,NNE,25,0.1,1.2,80,0.00,CLR,,0.00,WeatherDisplay:10.37,2013-08-13 10:43:00,
2013-08-13 05:44:00,50.3,44.4,30.06,East,89,0.8,3.2,80,0.00,CLR,,0.00,WeatherDisplay:10.37,2013-08-13 10:44:00,
2013-08-13 05:45:00,50.3,44.4,30.06,NW,305,1.9,2.3,80,0.00,CLR,,0.00,WeatherDisplay:10.37,2013-08-13 10:45:00,
2013-08-13 05:48:00,50.2,44.3,30.06,NNE,16,1.1,2.3,80,0.00,CLR,,0.00,WeatherDisplay:10.37,2013-08-13 10:48:00,
2013-08-13 05:49:00,50.3,44.4,30.06,NNE,16,0.5,2.3,80,0.00,CLR,,0.00,WeatherDisplay:10.37,2013-08-13 10:49:00,
2013-08-13 05:50:00,50.1,44.2,30.06,North,8,0.2,0.0,80,0.00,CLR,,0.00,WeatherDisplay:10.37,2013-08-13 10:50:00,
2013-08-13 05:54:00,50.0,44.1,30.07,NE,40,0.0,0.0,80,0.00,CLR,,0.00,WeatherDisplay:10.37,2013-08-13 10:54:00,
2013-08-13 05:55:00,49.8,44.2,30.07,NE,40,0.0,0.0,81,0.00,CLR,,0.00,WeatherDisplay:10.37,2013-08-13 10:55:00,
2013-08-13 05:59:00,49.7,43.8,30.07,NE,40,0.0,0.0,80,0.00,CLR,,0.00,WeatherDisplay:10.37,2013-08-13 10:59:00,
2013-08-13 06:00:00,49.6,44.0,30.07,NE,40,0.0,0.0,81,0.00,CLR,,0.00,WeatherDisplay:10.37,2013-08-13 11:00:00,
2013-08-13 06:04:00,49.6,44.0,30.08,NE,40,0.0,0.0,81,0.00,CLR,,0.00,WeatherDisplay:10.37,2013-08-13 11:04:00,
2013-08-13 06:05:00,49.5,43.9,30.08,NE,40,0.0,0.0,81,0.00,CLR,,0.00,WeatherDisplay:10.37,2013-08-13 11:05:00,
2013-08-13 06:09:00,49.3,43.7,30.08,NE,40,0.0,0.0,81,0.00,CLR,,0.00,WeatherDisplay:10.37,2013-08-13 11:09:00,
2013-08-13 06:10:00,49.3,43.7,30.08,NE,40,0.0,0.0,81,0.00,CLR,,0.00,WeatherDisplay:10.37,2013-08-13 11:10:00,
2013-08-13 06:11:00,49.2,43.6,30.08,North,8,0.3,1.2,81,0.00,CLR,,0.00,WeatherDisplay:10.37,2013-08-13 11:11:00,
2013-08-13 06:14:00,49.0,43.4,30.08,North,8,0.0,0.0,81,0.00,CLR,,0.00,WeatherDisplay:10.37,2013-08-13 11:14:00,
2013-08-13 06:15:00,49.0,43.4,30.08,North,8,0.0,0.0,81,0.00,CLR,,0.00,WeatherDisplay:10.37,2013-08-13 11:15:00,
2013-08-13 06:16:00,49.0,43.4,30.08,North,8,0.0,0.0,81,0.00,CLR,,0.00,WeatherDisplay:10.37,2013-08-13 11:16:00,
2013-08-13 06:19:00,48.8,43.5,30.08,North,8,0.0,0.0,82,0.00,CLR,,0.00,WeatherDisplay:10.37,2013-08-13 11:19:00,
2013-08-13 06:20:00,48.8,43.5,30.08,North,8,0.0,0.0,82,0.00,CLR,,0.00,WeatherDisplay:10.37,2013-08-13 11:20:00,
2013-08-13 06:21:00,48.8,43.5,30.08,North,8,0.0,0.0,82,0.00,CLR,,0.00,WeatherDisplay:10.37,2013-08-13 11:21:00,
2013-08-13 06:24:00,48.7,43.5,30.08,North,8,0.0,0.0,82,0.00,CLR,,0.00,WeatherDisplay:10.37,2013-08-13 11:24:00,
2013-08-13 06:25:00,48.5,43.3,30.08,North,8,0.0,0.0,82,0.00,CLR,,0.00,WeatherDisplay:10.37,2013-08-13 11:25:00,
2013-08-13 06:26:00,48.6,43.4,30.08,North,8,0.0,0.0,82,0.00,CLR,,0.00,WeatherDisplay:10.37,2013-08-13 11:26:00,
2013-08-13 06:27:00,48.6,43.4,30.08,North,8,0.0,0.0,82,0.00,CLR,,0.00,WeatherDisplay:10.37,2013-08-13 11:27:00,
2013-08-13 06:29:00,48.5,43.3,30.08,North,8,0.0,0.0,82,0.00,CLR,,0.00,WeatherDisplay:10.37,2013-08-13 11:29:00,
2013-08-13 06:30:00,48.4,43.2,30.08,North,8,0.0,0.0,82,0.00,CLR,,0.00,WeatherDisplay:10.37,2013-08-13 11:30:00,
2013-08-13 06:31:00,48.4,43.2,30.08,North,8,0.0,0.0,82,0.00,CLR,,0.00,WeatherDisplay:10.37,2013-08-13 11:31:00,
2013-08-13 06:32:00,48.4,43.2,30.08,North,8,0.0,0.0,82,0.00,CLR,,0.00,WeatherDisplay:10.37,2013-08-13 11:32:00,
2013-08-13 06:34:00,48.3,43.1,30.08,North,8,0.0,0.0,82,0.00,CLR,,0.00,WeatherDisplay:10.37,2013-08-13 11:34:00,
2013-08-13 06:35:00,48.3,43.1,30.09,North,8,0.0,0.0,82,0.00,CLR,,0.00,WeatherDisplay:10.37,2013-08-13 11:35:00,
2013-08-13 06:36:00,48.2,43.0,30.09,North,8,0.0,0.0,82,0.00,CLR,,0.00,WeatherDisplay:10.37,2013-08-13 11:36:00,
2013-08-13 06:37:00,48.1,42.9,30.09,North,8,0.0,0.0,82,0.00,CLR,,0.00,WeatherDisplay:10.37,2013-08-13 11:37:00,
2013-08-13 06:40:00,48.1,42.9,30.09,North,8,0.0,0.0,82,0.00,CLR,,0.00,WeatherDisplay:10.37,2013-08-13 11:40:00,
2013-08-13 06:41:00,48.2,43.3,30.09,North,8,0.0,0.0,83,0.00,CLR,,0.00,WeatherDisplay:10.37,2013-08-13 11:41:00,
2013-08-13 06:43:00,48.1,43.2,30.09,North,8,0.0,0.0,83,0.00,CLR,,0.00,WeatherDisplay:10.37,2013-08-13 11:43:00,
2013-08-13 06:45:00,48.1,43.2,30.09,WNW,291,0.0,0.0,83,0.00,CLR,,0.00,WeatherDisplay:10.37,2013-08-13 11:45:00,
2013-08-13 06:46:00,48.2,43.3,30.09,WNW,291,0.0,0.0,83,0.00,CLR,,0.00,WeatherDisplay:10.37,2013-08-13 11:46:00,
2013-08-13 06:48:00,48.1,43.2,30.09,WNW,291,0.0,0.0,83,0.00,CLR,,0.00,WeatherDisplay:10.37,2013-08-13 11:48:00,
2013-08-13 06:50:00,48.2,43.6,30.09,NW,315,0.6,0.0,84,0.00,CLR,,0.00,WeatherDisplay:10.37,2013-08-13 11:50:00,
2013-08-13 06:51:00,48.2,43.6,30.09,North,354,1.4,1.4,84,0.00,CLR,,0.00,WeatherDisplay:10.37,2013-08-13 11:51:00,
2013-08-13 06:52:00,48.3,43.7,30.09,NNW,328,1.5,2.3,84,0.00,CLR,,0.00,WeatherDisplay:10.37,2013-08-13 11:52:00,
2013-08-13 06:53:00,48.3,43.7,30.09,NW,326,0.9,2.3,84,0.00,CLR,,0.00,WeatherDisplay:10.37,2013-08-13 11:53:00,
2013-08-13 06:55:00,48.5,43.9,30.09,NW,326,0.0,0.0,84,0.00,CLR,,0.00,WeatherDisplay:10.37,2013-08-13 11:55:00,
2013-08-13 06:56:00,48.5,43.9,30.09,NW,326,0.0,0.0,84,0.00,CLR,,0.00,WeatherDisplay:10.37,2013-08-13 11:56:00,
2013-08-13 06:57:00,48.6,44.0,30.09,NNW,329,1.3,2.3,84,0.00,CLR,,0.00,WeatherDisplay:10.37,2013-08-13 11:57:00,
2013-08-13 06:59:00,48.7,44.1,30.09,NNW,336,0.1,1.2,84,0.00,CLR,,0.00,WeatherDisplay:10.37,2013-08-13 11:59:00,
2013-08-13 07:00:00,48.8,44.2,30.09,NNW,336,0.0,0.0,84,0.00,CLR,,0.00,WeatherDisplay:10.37,2013-08-13 12:00:00,
2013-08-13 07:01:00,48.8,44.2,30.09,NNW,336,0.0,0.0,84,0.00,CLR,,0.00,WeatherDisplay:10.37,2013-08-13 12:01:00,
2013-08-13 07:02:00,48.9,44.3,30.09,NNW,336,0.0,0.0,84,0.00,CLR,,0.00,WeatherDisplay:10.37,2013-08-13 12:02:00,
2013-08-13 07:03:00,48.9,44.3,30.09,NNW,336,0.0,0.0,84,0.00,CLR,,0.00,WeatherDisplay:10.37,2013-08-13 12:03:00,
2013-08-13 07:04:00,49.1,44.5,30.09,NNW,336,0.0,0.0,84,0.00,CLR,,0.00,WeatherDisplay:10.37,2013-08-13 12:04:00,
2013-08-13 07:05:00,49.1,44.5,30.09,NNW,336,0.0,0.0,84,0.00,CLR,,0.00,WeatherDisplay:10.37,2013-08-13 12:05:00,
2013-08-13 07:06:00,49.2,44.6,30.10,NNW,336,0.0,0.0,84,0.00,CLR,,0.00,WeatherDisplay:10.37,2013-08-13 12:06:00,
2013-08-13 07:07:00,49.2,44.6,30.10,NNW,336,0.0,0.0,84,0.00,CLR,,0.00,WeatherDisplay:10.37,2013-08-13 12:07:00,
2013-08-13 07:08:00,49.2,44.6,30.09,NNW,336,0.0,0.0,84,0.00,CLR,,0.00,WeatherDisplay:10.37,2013-08-13 12:08:00,
2013-08-13 07:10:00,49.4,44.8,30.10,NNW,342,0.7,1.2,84,0.00,CLR,,0.00,WeatherDisplay:10.37,2013-08-13 12:10:00,
2013-08-13 07:12:00,49.5,44.9,30.10,NW,313,0.0,0.0,84,0.00,CLR,,0.00,WeatherDisplay:10.37,2013-08-13 12:12:00,
2013-08-13 07:13:00,49.7,45.1,30.10,WSW,251,0.6,1.2,84,0.00,CLR,,0.00,WeatherDisplay:10.37,2013-08-13 12:13:00,
2013-08-13 07:15:00,49.8,45.2,30.10,North,0,0.4,1.2,84,0.00,CLR,,0.00,WeatherDisplay:10.37,2013-08-13 12:15:00,
2013-08-13 07:16:00,49.9,45.3,30.10,NNW,335,0.7,1.2,84,0.00,CLR,,0.00,WeatherDisplay:10.37,2013-08-13 12:16:00,
2013-08-13 07:17:00,50.0,45.4,30.10,NW,311,0.1,1.2,84,0.00,CLR,,0.00,WeatherDisplay:10.37,2013-08-13 12:17:00,
2013-08-13 07:18:00,50.1,45.1,30.10,NW,323,0.0,1.3,83,0.00,CLR,,0.00,WeatherDisplay:10.37,2013-08-13 12:18:00,
2013-08-13 07:20:00,50.2,45.2,30.10,NW,315,1.2,3.5,83,0.00,CLR,,0.00,WeatherDisplay:10.37,2013-08-13 12:20:00,
2013-08-13 07:21:00,50.2,45.2,30.10,NW,320,1.2,2.3,83,0.00,CLR,,0.00,WeatherDisplay:10.37,2013-08-13 12:21:00,
2013-08-13 07:22:00,50.3,45.3,30.10,NW,315,0.0,2.3,83,0.00,CLR,,0.00,WeatherDisplay:10.37,2013-08-13 12:22:00,
2013-08-13 07:23:00,50.5,45.5,30.10,NW,315,0.0,0.0,83,0.00,CLR,,0.00,WeatherDisplay:10.37,2013-08-13 12:23:00,
2013-08-13 07:25:00,50.6,45.3,30.10,NNW,339,1.0,3.5,82,0.00,CLR,,0.00,WeatherDisplay:10.37,2013-08-13 12:25:00,
2013-08-13 07:26:00,50.7,45.4,30.10,NNW,330,1.3,2.3,82,0.00,CLR,,0.00,WeatherDisplay:10.37,2013-08-13 12:26:00,
2013-08-13 07:27:00,50.7,45.4,30.10,NNW,343,0.4,2.3,82,0.00,CLR,,0.00,WeatherDisplay:10.37,2013-08-13 12:27:00,
2013-08-13 07:28:00,50.9,45.6,30.10,NNW,343,0.0,0.0,82,0.00,CLR,,0.00,WeatherDisplay:10.37,2013-08-13 12:28:00,
2013-08-13 07:30:00,51.0,45.7,30.10,NNW,343,0.1,0.0,82,0.00,CLR,,0.00,WeatherDisplay:10.37,2013-08-13 12:30:00,
2013-08-13 07:31:00,51.1,45.8,30.10,NNW,343,0.0,0.0,82,0.00,CLR,,0.00,WeatherDisplay:10.37,2013-08-13 12:31:00,
2013-08-13 07:32:00,51.1,45.8,30.10,NNW,343,0.0,0.0,82,0.00,CLR,,0.00,WeatherDisplay:10.37,2013-08-13 12:32:00,
2013-08-13 07:33:00,51.1,45.8,30.10,NNW,343,0.0,0.0,82,0.00,CLR,,0.00,WeatherDisplay:10.37,2013-08-13 12:33:00,
2013-08-13 07:34:00,51.2,45.9,30.10,NNW,343,0.0,0.0,82,0.00,CLR,,0.00,WeatherDisplay:10.37,2013-08-13 12:34:00,
2013-08-13 07:35:00,51.3,45.7,30.10,NNW,328,0.9,0.9,81,0.00,CLR,,0.00,WeatherDisplay:10.37,2013-08-13 12:35:00,
2013-08-13 07:36:00,51.4,45.8,30.10,NNE,28,0.3,1.2,81,0.00,CLR,,0.00,WeatherDisplay:10.37,2013-08-13 12:36:00,
2013-08-13 07:37:00,51.4,45.8,30.10,NNE,28,0.0,1.2,81,0.00,CLR,,0.00,WeatherDisplay:10.37,2013-08-13 12:37:00,
2013-08-13 07:38:00,51.5,45.9,30.10,NE,49,0.1,2.1,81,0.00,CLR,,0.00,WeatherDisplay:10.37,2013-08-13 12:38:00,
2013-08-13 07:39:00,51.6,46.0,30.10,NE,49,1.0,2.3,81,0.00,CLR,,0.00,WeatherDisplay:10.37,2013-08-13 12:39:00,
2013-08-13 07:40:00,51.7,46.1,30.10,North,357,1.1,2.3,81,0.00,CLR,,0.00,WeatherDisplay:10.37,2013-08-13 12:40:00,
2013-08-13 07:41:00,51.7,46.1,30.10,North,357,0.1,1.2,81,0.00,CLR,,0.00,WeatherDisplay:10.37,2013-08-13 12:41:00,
2013-08-13 07:42:00,51.8,46.2,30.10,North,357,0.0,1.2,81,0.00,CLR,,0.00,WeatherDisplay:10.37,2013-08-13 12:42:00,
2013-08-13 07:43:00,51.8,46.2,30.10,North,357,0.0,0.0,81,0.00,CLR,,0.00,WeatherDisplay:10.37,2013-08-13 12:43:00,
2013-08-13 07:44:00,51.9,45.9,30.10,North,357,0.0,0.0,80,0.00,CLR,,0.00,WeatherDisplay:10.37,2013-08-13 12:44:00,
2013-08-13 07:45:00,51.9,45.9,30.10,North,357,0.0,0.0,80,0.00,CLR,,0.00,WeatherDisplay:10.37,2013-08-13 12:45:00,
2013-08-13 07:47:00,52.0,46.0,30.10,NNW,332,0.2,1.7,80,0.00,CLR,,0.00,WeatherDisplay:10.37,2013-08-13 12:47:00,
2013-08-13 07:48:00,52.1,46.4,30.10,NE,41,0.5,1.9,81,0.00,CLR,,0.00,WeatherDisplay:10.37,2013-08-13 12:48:00,
2013-08-13 07:49:00,52.2,46.5,30.10,ENE,61,1.3,2.3,81,0.00,CLR,,0.00,WeatherDisplay:10.37,2013-08-13 12:49:00,
2013-08-13 07:50:00,52.3,46.6,30.10,NE,45,0.4,2.3,81,0.00,CLR,,0.00,WeatherDisplay:10.37,2013-08-13 12:50:00,
2013-08-13 07:52:00,52.4,46.4,30.10,WNW,299,0.9,5.3,80,0.00,CLR,,0.00,WeatherDisplay:10.37,2013-08-13 12:52:00,
2013-08-13 07:53:00,52.4,46.4,30.11,North,360,2.9,5.0,80,0.00,CLR,,0.00,WeatherDisplay:10.37,2013-08-13 12:53:00,
2013-08-13 07:54:00,52.5,46.5,30.10,ENE,65,2.5,5.8,80,0.00,CLR,,0.00,WeatherDisplay:10.37,2013-08-13 12:54:00,
2013-08-13 07:56:00,52.7,46.7,30.11,NW,319,0.6,2.3,80,0.00,CLR,,0.00,WeatherDisplay:10.37,2013-08-13 12:56:00,
2013-08-13 07:57:00,52.7,46.7,30.11,NNE,32,2.6,5.8,80,0.00,CLR,,0.00,WeatherDisplay:10.37,2013-08-13 12:57:00,
2013-08-13 07:58:00,52.8,46.8,30.11,NNE,32,2.5,5.8,80,0.00,CLR,,0.00,WeatherDisplay:10.37,2013-08-13 12:58:00,
2013-08-13 07:59:00,52.9,46.6,30.10,NNE,21,1.1,3.5,79,0.00,CLR,,0.00,WeatherDisplay:10.37,2013-08-13 12:59:00,
2013-08-13 08:01:00,53.1,46.8,30.10,NNE,21,0.0,0.0,79,0.00,CLR,,0.00,WeatherDisplay:10.37,2013-08-13 13:01:00,
2013-08-13 08:02:00,53.1,46.8,30.10,NNW,335,2.4,4.6,79,0.00,CLR,,0.00,WeatherDisplay:10.37,2013-08-13 13:02:00,
2013-08-13 08:03:00,53.3,47.0,30.10,North,350,2.2,4.6,79,0.00,CLR,,0.00,WeatherDisplay:10.37,2013-08-13 13:03:00,
2013-08-13 08:05:00,53.4,46.7,30.10,NE,56,2.4,5.8,78,0.00,CLR,,0.00,WeatherDisplay:10.37,2013-08-13 13:05:00,
2013-08-13 08:06:00,53.5,46.8,30.10,NNE,18,1.6,2.3,78,0.00,CLR,,0.00,WeatherDisplay:10.37,2013-08-13 13:06:00,
2013-08-13 08:08:00,53.6,46.9,30.10,NNE,21,2.2,4.6,78,0.00,CLR,,0.00,WeatherDisplay:10.37,2013-08-13 13:08:00,
2013-08-13 08:10:00,53.7,47.0,30.11,WNW,296,3.2,3.5,78,0.00,CLR,,0.00,WeatherDisplay:10.37,2013-08-13 13:10:00,
2013-08-13 08:11:00,53.9,46.9,30.11,ENE,58,0.4,4.4,77,0.00,CLR,,0.00,WeatherDisplay:10.37,2013-08-13 13:11:00,
2013-08-13 08:13:00,53.9,46.9,30.11,NNE,31,5.7,7.0,77,0.00,CLR,,0.00,WeatherDisplay:10.37,2013-08-13 13:13:00,
2013-08-13 08:15:00,54.1,47.0,30.11,NNE,28,3.3,6.9,77,0.00,CLR,,0.00,WeatherDisplay:10.37,2013-08-13 13:15:00,
2013-08-13 08:16:00,54.1,46.7,30.11,NE,34,2.1,7.0,76,0.00,CLR,,0.00,WeatherDisplay:10.37,2013-08-13 13:16:00,
2013-08-13 08:18:00,54.3,46.9,30.11,NNE,18,3.1,4.6,76,0.00,CLR,,0.00,WeatherDisplay:10.37,2013-08-13 13:18:00,
2013-08-13 08:19:00,54.3,46.9,30.11,NW,319,3.3,4.9,76,0.00,CLR,,0.00,WeatherDisplay:10.37,2013-08-13 13:19:00,
2013-08-13 08:20:00,54.4,47.0,30.11,NE,35,2.0,3.5,76,0.00,CLR,,0.00,WeatherDisplay:10.37,2013-08-13 13:20:00,
2013-08-13 08:22:00,54.5,47.1,30.11,NNE,18,0.7,3.5,76,0.00,CLR,,0.00,WeatherDisplay:10.37,2013-08-13 13:22:00,
2013-08-13 08:23:00,54.6,47.2,30.11,NE,44,3.1,5.8,76,0.00,CLR,,0.00,WeatherDisplay:10.37,2013-08-13 13:23:00,
2013-08-13 08:24:00,54.6,47.2,30.11,NE,40,2.8,5.8,76,0.00,CLR,,0.00,WeatherDisplay:10.37,2013-08-13 13:24:00,
2013-08-13 08:25:00,54.8,47.0,30.11,North,7,2.4,4.6,75,0.00,CLR,,0.00,WeatherDisplay:10.37,2013-08-13 13:25:00,
2013-08-13 08:27:00,54.9,47.1,30.11,NNE,28,3.3,4.6,75,0.00,CLR,,0.00,WeatherDisplay:10.37,2013-08-13 13:27:00,
2013-08-13 08:28:00,54.9,47.1,30.11,NE,44,3.8,7.5,75,0.00,CLR,,0.00,WeatherDisplay:10.37,2013-08-13 13:28:00,
2013-08-13 08:29:00,55.0,46.9,30.11,East,100,4.7,8.1,74,0.00,CLR,,0.00,WeatherDisplay:10.37,2013-08-13 13:29:00,
2013-08-13 08:30:00,55.1,47.0,30.11,ENE,65,2.5,5.8,74,0.00,CLR,,0.00,WeatherDisplay:10.37,2013-08-13 13:30:00,
2013-08-13 08:32:00,55.1,47.0,30.11,ESE,117,3.1,6.9,74,0.00,CLR,,0.00,WeatherDisplay:10.37,2013-08-13 13:32:00,
2013-08-13 08:34:00,55.3,47.2,30.11,NE,47,1.8,5.8,74,0.00,CLR,,0.00,WeatherDisplay:10.37,2013-08-13 13:34:00,
2013-08-13 08:35:00,55.3,47.2,30.11,North,1,2.8,4.6,74,0.00,CLR,,0.00,WeatherDisplay:10.37,2013-08-13 13:35:00,
2013-08-13 08:37:00,55.6,47.1,30.11,North,356,3.8,4.7,73,0.00,CLR,,0.00,WeatherDisplay:10.37,2013-08-13 13:37:00,
2013-08-13 08:39:00,55.6,47.1,30.11,North,3,4.7,5.8,73,0.00,CLR,,0.00,WeatherDisplay:10.37,2013-08-13 13:39:00,
2013-08-13 08:40:00,55.8,47.3,30.11,North,349,3.6,8.1,73,0.00,CLR,,0.00,WeatherDisplay:10.37,2013-08-13 13:40:00,
2013-08-13 08:41:00,55.8,47.3,30.11,ENE,62,4.3,5.8,73,0.00,CLR,,0.00,WeatherDisplay:10.37,2013-08-13 13:41:00,
2013-08-13 08:42:00,56.0,47.1,30.11,NNE,25,4.3,9.2,72,0.00,CLR,,0.00,WeatherDisplay:10.37,2013-08-13 13:42:00,
2013-08-13 08:44:00,56.1,47.2,30.11,North,7,2.4,2.4,72,0.00,CLR,,0.00,WeatherDisplay:10.37,2013-08-13 13:44:00,
2013-08-13 08:45:00,56.1,47.2,30.12,NNE,20,3.5,5.8,72,0.00,CLR,,0.00,WeatherDisplay:10.37,2013-08-13 13:45:00,
2013-08-13 08:46:00,56.2,47.3,30.11,NE,56,4.5,6.9,72,0.00,CLR,,0.00,WeatherDisplay:10.37,2013-08-13 13:46:00,
2013-08-13 08:47:00,56.3,47.0,30.11,NNW,337,2.0,4.6,71,0.00,CLR,,0.00,WeatherDisplay:10.37,2013-08-13 13:47:00,
2013-08-13 08:49:00,56.4,47.1,30.11,NE,41,3.6,3.6,71,0.00,CLR,,0.00,WeatherDisplay:10.37,2013-08-13 13:49:00,
2013-08-13 08:51:00,56.6,46.9,30.12,North,353,5.1,9.2,70,0.00,CLR,,0.00,WeatherDisplay:10.37,2013-08-13 13:51:00,
2013-08-13 08:53:00,56.7,47.0,30.12,NE,42,3.7,6.9,70,0.00,CLR,,0.00,WeatherDisplay:10.37,2013-08-13 13:53:00,
2013-08-13 08:54:00,56.8,47.1,30.12,East,97,3.2,5.8,70,0.00,CLR,,0.00,WeatherDisplay:10.37,2013-08-13 13:54:00,
2013-08-13 08:55:00,56.9,47.2,30.12,NNE,27,4.5,7.8,70,0.00,CLR,,0.00,WeatherDisplay:10.37,2013-08-13 13:55:00,
2013-08-13 08:56:00,57.0,46.9,30.12,ENE,78,4.5,9.2,69,0.00,CLR,,0.00,WeatherDisplay:10.37,2013-08-13 13:56:00,
2013-08-13 08:58:00,57.2,46.7,30.12,NW,312,4.4,9.2,68,0.00,CLR,,0.00,WeatherDisplay:10.37,2013-08-13 13:58:00,
2013-08-13 09:00:00,57.2,46.7,30.12,East,79,2.2,5.8,68,0.00,CLR,,0.00,WeatherDisplay:10.37,2013-08-13 14:00:00,
2013-08-13 09:01:00,57.4,46.9,30.12,ENE,68,1.1,5.8,68,0.00,CLR,,0.00,WeatherDisplay:10.37,2013-08-13 14:01:00,
2013-08-13 09:02:00,57.3,46.8,30.12,East,83,2.5,3.5,68,0.00,CLR,,0.00,WeatherDisplay:10.37,2013-08-13 14:02:00,
2013-08-13 09:03:00,57.3,46.8,30.12,NE,52,2.3,4.6,68,0.00,CLR,,0.00,WeatherDisplay:10.37,2013-08-13 14:03:00,
2013-08-13 09:05:00,57.4,46.9,30.11,ENE,62,2.0,2.4,68,0.00,CLR,,0.00,WeatherDisplay:10.37,2013-08-13 14:05:00,
2013-08-13 09:07:00,57.5,47.0,30.11,NE,56,4.0,6.9,68,0.00,CLR,,0.00,WeatherDisplay:10.37,2013-08-13 14:07:00,
2013-08-13 09:08:00,57.5,46.6,30.11,East,92,4.5,6.9,67,0.00,CLR,,0.00,WeatherDisplay:10.37,2013-08-13 14:08:00,
2013-08-13 09:10:00,57.6,46.3,30.11,NE,41,3.6,8.1,66,0.00,CLR,,0.00,WeatherDisplay:10.37,2013-08-13 14:10:00,
2013-08-13 09:12:00,57.7,46.8,30.11,East,95,1.6,4.6,67,0.00,CLR,,0.00,WeatherDisplay:10.37,2013-08-13 14:12:00,
2013-08-13 09:13:00,57.8,46.9,30.11,ENE,66,2.8,5.8,67,0.00,CLR,,0.00,WeatherDisplay:10.37,2013-08-13 14:13:00,
2013-08-13 09:15:00,57.8,46.9,30.11,ESE,120,0.5,1.2,67,0.00,CLR,,0.00,WeatherDisplay:10.37,2013-08-13 14:15:00,
2013-08-13 09:17:00,57.9,47.4,30.11,North,11,2.7,6.0,68,0.00,CLR,,0.00,WeatherDisplay:10.37,2013-08-13 14:17:00,
2013-08-13 09:18:00,58.0,46.7,30.11,ESE,110,4.1,6.9,66,0.00,CLR,,0.00,WeatherDisplay:10.37,2013-08-13 14:18:00,
2013-08-13 09:20:00,58.2,47.3,30.11,NNW,328,2.8,8.1,67,0.00,CLR,,0.00,WeatherDisplay:10.37,2013-08-13 14:20:00,
2013-08-13 09:21:00,58.1,46.8,30.11,North,360,4.3,8.1,66,0.00,CLR,,0.00,WeatherDisplay:10.37,2013-08-13 14:21:00,
2013-08-13 09:22:00,58.2,46.9,30.11,NW,315,3.6,6.9,66,0.00,CLR,,0.00,WeatherDisplay:10.37,2013-08-13 14:22:00,
2013-08-13 09:23:00,58.3,47.0,30.11,ENE,71,4.3,8.1,66,0.00,CLR,,0.00,WeatherDisplay:10.37,2013-08-13 14:23:00,
2013-08-13 09:25:00,58.4,46.7,30.11,NE,45,4.4,9.2,65,0.00,CLR,,0.00,WeatherDisplay:10.37,2013-08-13 14:25:00,
2013-08-13 09:26:00,58.4,46.7,30.11,ENE,78,3.8,9.2,65,0.00,CLR,,0.00,WeatherDisplay:10.37,2013-08-13 14:26:00,
2013-08-13 09:27:00,58.4,47.1,30.11,NNE,30,3.1,6.9,66,0.00,CLR,,0.00,WeatherDisplay:10.37,2013-08-13 14:27:00,
2013-08-13 09:29:00,58.5,46.8,30.11,NNE,31,3.7,8.1,65,0.00,CLR,,0.00,WeatherDisplay:10.37,2013-08-13 14:29:00,
2013-08-13 09:31:00,58.5,46.8,30.11,NE,35,3.0,5.8,65,0.00,CLR,,0.00,WeatherDisplay:10.37,2013-08-13 14:31:00,
2013-08-13 09:32:00,58.5,46.4,30.11,NE,40,4.9,6.8,64,0.00,CLR,,0.00,WeatherDisplay:10.37,2013-08-13 14:32:00,
2013-08-13 09:33:00,58.4,46.3,30.11,North,354,4.9,9.2,64,0.00,CLR,,0.00,WeatherDisplay:10.37,2013-08-13 14:33:00,
2013-08-13 09:34:00,58.5,46.4,30.11,North,360,5.2,6.9,64,0.00,CLR,,0.00,WeatherDisplay:10.37,2013-08-13 14:34:00,
2013-08-13 09:36:00,58.6,46.5,30.11,WSW,258,3.5,6.9,64,0.00,CLR,,0.00,WeatherDisplay:10.37,2013-08-13 14:36:00,
2013-08-13 09:37:00,58.6,46.5,30.11,NE,54,3.9,8.1,64,0.00,CLR,,0.00,WeatherDisplay:10.37,2013-08-13 14:37:00,
2013-08-13 09:38:00,58.6,46.5,30.11,NNW,333,2.1,8.1,64,0.00,CLR,,0.00,WeatherDisplay:10.37,2013-08-13 14:38:00,
2013-08-13 09:39:00,58.6,46.5,30.11,NE,54,6.3,11.5,64,0.00,CLR,,0.00,WeatherDisplay:10.37,2013-08-13 14:39:00,
2013-08-13 09:41:00,58.7,46.1,30.11,East,85,4.8,8.1,63,0.00,CLR,,0.00,WeatherDisplay:10.37,2013-08-13 14:41:00,
2013-08-13 09:42:00,58.7,45.7,30.11,NE,35,5.7,6.9,62,0.00,CLR,,0.00,WeatherDisplay:10.37,2013-08-13 14:42:00,
2013-08-13 09:43:00,58.7,46.1,30.11,ENE,75,5.6,9.2,63,0.00,CLR,,0.00,WeatherDisplay:10.37,2013-08-13 14:43:00,
2013-08-13 09:44:00,58.8,46.2,30.11,NNE,30,6.2,9.2,63,0.00,CLR,,0.00,WeatherDisplay:10.37,2013-08-13 14:44:00,
2013-08-13 09:46:00,58.8,46.2,30.11,NE,47,4.3,10.4,63,0.00,CLR,,0.00,WeatherDisplay:10.37,2013-08-13 14:46:00,
2013-08-13 09:47:00,58.8,46.2,30.11,ESE,106,3.4,6.9,63,0.00,CLR,,0.00,WeatherDisplay:10.37,2013-08-13 14:47:00,
2013-08-13 09:48:00,58.8,46.2,30.11,ESE,119,4.3,8.1,63,0.00,CLR,,0.00,WeatherDisplay:10.37,2013-08-13 14:48:00,
2013-08-13 09:49:00,58.8,46.2,30.11,NE,55,5.8,8.5,63,0.00,CLR,,0.00,WeatherDisplay:10.37,2013-08-13 14:49:00,
2013-08-13 09:51:00,59.0,46.4,30.11,NE,34,5.8,10.4,63,0.00,CLR,,0.00,WeatherDisplay:10.37,2013-08-13 14:51:00,
2013-08-13 09:52:00,59.0,46.4,30.11,South,189,4.2,6.9,63,0.00,CLR,,0.00,WeatherDisplay:10.37,2013-08-13 14:52:00,
2013-08-13 09:53:00,59.0,46.4,30.11,East,82,2.7,6.9,63,0.00,CLR,,0.00,WeatherDisplay:10.37,2013-08-13 14:53:00,
2013-08-13 09:54:00,59.2,46.6,30.11,East,89,4.6,8.1,63,0.00,CLR,,0.00,WeatherDisplay:10.37,2013-08-13 14:54:00,
2013-08-13 09:56:00,59.3,46.7,30.11,NE,34,2.5,6.9,63,0.00,CLR,,0.00,WeatherDisplay:10.37,2013-08-13 14:56:00,
2013-08-13 09:57:00,59.4,46.8,30.11,East,89,2.2,5.8,63,0.00,CLR,,0.00,WeatherDisplay:10.37,2013-08-13 14:57:00,
2013-08-13 09:58:00,59.4,46.8,30.11,East,95,4.3,8.1,63,0.00,CLR,,0.00,WeatherDisplay:10.37,2013-08-13 14:58:00,
2013-08-13 09:59:00,59.5,46.5,30.11,ENE,76,4.1,5.8,62,0.00,CLR,,0.00,WeatherDisplay:10.37,2013-08-13 14:59:00,
2013-08-13 10:01:00,59.6,47.0,30.11,East,82,2.9,5.8,63,0.00,CLR,,0.00,WeatherDisplay:10.37,2013-08-13 15:01:00,
2013-08-13 10:02:00,59.7,47.1,30.11,NE,37,3.2,4.6,63,0.00,CLR,,0.00,WeatherDisplay:10.37,2013-08-13 15:02:00,
2013-08-13 10:03:00,59.7,47.1,30.11,NE,34,5.2,6.9,63,0.00,CLR,,0.00,WeatherDisplay:10.37,2013-08-13 15:03:00,
2013-08-13 10:04:00,59.7,47.1,30.11,North,3,5.5,6.9,63,0.00,CLR,,0.00,WeatherDisplay:10.37,2013-08-13 15:04:00,
2013-08-13 10:06:00,59.9,46.4,30.12,NNW,333,6.2,10.4,61,0.00,CLR,,0.00,WeatherDisplay:10.37,2013-08-13 15:06:00,
2013-08-13 10:07:00,59.9,46.4,30.12,North,3,4.0,10.4,61,0.00,CLR,,0.00,WeatherDisplay:10.37,2013-08-13 15:07:00,
2013-08-13 10:08:00,60.0,46.1,30.12,NNW,329,5.0,6.9,60,0.00,CLR,,0.00,WeatherDisplay:10.37,2013-08-13 15:08:00,
2013-08-13 10:09:00,59.9,46.0,30.12,North,6,4.7,9.2,60,0.00,CLR,,0.00,WeatherDisplay:10.37,2013-08-13 15:09:00,
2013-08-13 10:10:00,59.9,46.0,30.12,NNE,18,5.0,9.2,60,0.00,CLR,,0.00,WeatherDisplay:10.37,2013-08-13 15:10:00,
2013-08-13 10:11:00,60.0,46.1,30.11,North,11,5.7,9.2,60,0.00,CLR,,0.00,WeatherDisplay:10.37,2013-08-13 15:11:00,
2013-08-13 10:12:00,60.0,46.1,30.12,NNW,337,5.4,9.2,60,0.00,CLR,,0.00,WeatherDisplay:10.37,2013-08-13 15:12:00,
2013-08-13 10:13:00,60.0,46.1,30.12,North,11,5.9,10.4,60,0.00,CLR,,0.00,WeatherDisplay:10.37,2013-08-13 15:13:00,
2013-08-13 10:14:00,60.1,46.6,30.12,North,8,4.1,10.4,61,0.00,CLR,,0.00,WeatherDisplay:10.37,2013-08-13 15:14:00,
2013-08-13 10:15:00,60.0,46.5,30.12,North,11,4.0,8.1,61,0.00,CLR,,0.00,WeatherDisplay:10.37,2013-08-13 15:15:00,
2013-08-13 10:17:00,60.1,46.2,30.11,East,80,3.6,5.8,60,0.00,CLR,,0.00,WeatherDisplay:10.37,2013-08-13 15:17:00,
2013-08-13 10:19:00,60.2,46.7,30.12,East,83,4.3,8.1,61,0.00,CLR,,0.00,WeatherDisplay:10.37,2013-08-13 15:19:00,
2013-08-13 10:20:00,60.2,46.7,30.12,NNW,340,4.5,8.1,61,0.00,CLR,,0.00,WeatherDisplay:10.37,2013-08-13 15:20:00,
2013-08-13 10:22:00,60.3,46.8,30.12,North,1,5.0,6.9,61,0.00,CLR,,0.00,WeatherDisplay:10.37,2013-08-13 15:22:00,
2013-08-13 10:24:00,60.5,47.0,30.12,NE,51,2.5,4.6,61,0.00,CLR,,0.00,WeatherDisplay:10.37,2013-08-13 15:24:00,
2013-08-13 10:25:00,60.4,46.9,30.12,NE,54,3.9,5.8,61,0.00,CLR,,0.00,WeatherDisplay:10.37,2013-08-13 15:25:00,
2013-08-13 10:27:00,60.5,46.5,30.12,North,360,3.5,5.8,60,0.00,CLR,,0.00,WeatherDisplay:10.37,2013-08-13 15:27:00,
2013-08-13 10:29:00,60.5,46.5,30.12,NW,315,5.2,8.1,60,0.00,CLR,,0.00,WeatherDisplay:10.37,2013-08-13 15:29:00,
2013-08-13 10:30:00,60.5,46.1,30.12,NW,322,5.0,6.9,59,0.00,CLR,,0.00,WeatherDisplay:10.37,2013-08-13 15:30:00,
2013-08-13 10:32:00,60.7,46.3,30.12,NNW,343,1.9,4.6,59,0.00,CLR,,0.00,WeatherDisplay:10.37,2013-08-13 15:32:00,
2013-08-13 10:34:00,60.7,46.3,30.12,North,3,4.8,8.1,59,0.00,CLR,,0.00,WeatherDisplay:10.37,2013-08-13 15:34:00,
2013-08-13 10:35:00,60.8,46.4,30.13,ENE,61,3.0,6.9,59,0.00,CLR,,0.00,WeatherDisplay:10.37,2013-08-13 15:35:00,
2013-08-13 10:37:00,61.0,46.6,30.12,NNE,25,2.6,2.6,59,0.00,CLR,,0.00,WeatherDisplay:10.37,2013-08-13 15:37:00,
2013-08-13 10:38:00,61.0,46.6,30.13,North,3,3.2,6.2,59,0.00,CLR,,0.00,WeatherDisplay:10.37,2013-08-13 15:38:00,
2013-08-13 10:39:00,61.1,46.2,30.13,ENE,61,4.5,10.4,58,0.00,CLR,,0.00,WeatherDisplay:10.37,2013-08-13 15:39:00,
2013-08-13 10:40:00,61.1,46.2,30.13,West,272,4.2,9.2,58,0.00,CLR,,0.00,WeatherDisplay:10.37,2013-08-13 15:40:00,
2013-08-13 10:43:00,61.2,45.4,30.13,NNE,32,6.2,10.4,56,0.00,CLR,,0.00,WeatherDisplay:10.37,2013-08-13 15:43:00,
2013-08-13 10:45:00,61.1,45.3,30.13,NNE,20,3.7,5.8,56,0.00,CLR,,0.00,WeatherDisplay:10.37,2013-08-13 15:45:00,
2013-08-13 10:46:00,61.1,45.3,30.13,North,360,4.3,9.2,56,0.00,CLR,,0.00,WeatherDisplay:10.37,2013-08-13 15:46:00,
2013-08-13 10:48:00,61.1,45.7,30.13,WNW,288,3.5,5.8,57,0.00,CLR,,0.00,WeatherDisplay:10.37,2013-08-13 15:48:00,
2013-08-13 10:50:00,61.3,45.9,30.13,NNE,30,2.1,5.8,57,0.00,CLR,,0.00,WeatherDisplay:10.37,2013-08-13 15:50:00,
2013-08-13 10:51:00,61.1,45.7,30.13,ENE,68,5.2,8.1,57,0.00,CLR,,0.00,WeatherDisplay:10.37,2013-08-13 15:51:00,
2013-08-13 10:53:00,61.3,45.9,30.12,NNW,347,3.2,5.8,57,0.00,CLR,,0.00,WeatherDisplay:10.37,2013-08-13 15:53:00,
2013-08-13 10:55:00,61.2,45.8,30.12,WNW,288,1.1,4.6,57,0.00,CLR,,0.00,WeatherDisplay:10.37,2013-08-13 15:55:00,
2013-08-13 10:56:00,61.3,45.5,30.12,NW,304,0.2,2.3,56,0.00,CLR,,0.00,WeatherDisplay:10.37,2013-08-13 15:56:00,
2013-08-13 10:58:00,61.3,45.9,30.12,NNE,24,4.0,6.9,57,0.00,CLR,,0.00,WeatherDisplay:10.37,2013-08-13 15:58:00,
2013-08-13 11:00:00,61.5,46.1,30.12,North,352,4.5,7.4,57,0.00,CLR,,0.00,WeatherDisplay:10.37,2013-08-13 16:00:00,
2013-08-13 11:01:00,61.5,46.1,30.12,ENE,68,4.4,8.1,57,0.00,CLR,,0.00,WeatherDisplay:10.37,2013-08-13 16:01:00,
2013-08-13 11:03:00,61.6,46.2,30.12,North,352,2.7,4.6,57,0.00,CLR,,0.00,WeatherDisplay:10.37,2013-08-13 16:03:00,
2013-08-13 11:04:00,61.6,46.2,30.12,North,11,2.5,4.6,57,0.00,CLR,,0.00,WeatherDisplay:10.37,2013-08-13 16:04:00,
2013-08-13 11:05:00,61.6,46.2,30.12,ENE,71,4.5,8.1,57,0.00,CLR,,0.00,WeatherDisplay:10.37,2013-08-13 16:05:00,
2013-08-13 11:06:00,61.6,46.2,30.12,NNE,28,5.1,9.2,57,0.00,CLR,,0.00,WeatherDisplay:10.37,2013-08-13 16:06:00,
2013-08-13 11:08:00,61.8,45.9,30.12,NE,48,1.7,6.9,56,0.00,CLR,,0.00,WeatherDisplay:10.37,2013-08-13 16:08:00,
2013-08-13 11:09:00,61.8,46.4,30.12,NNW,329,0.7,2.3,57,0.00,CLR,,0.00,WeatherDisplay:10.37,2013-08-13 16:09:00,
2013-08-13 11:10:00,61.8,46.9,30.12,NNW,342,1.1,7.3,58,0.00,CLR,,0.00,WeatherDisplay:10.37,2013-08-13 16:10:00,
2013-08-13 11:11:00,62.0,46.6,30.12,North,360,4.6,9.1,57,0.00,CLR,,0.00,WeatherDisplay:10.37,2013-08-13 16:11:00,
2013-08-13 11:12:00,61.9,45.5,30.13,ESE,106,6.4,6.9,55,0.00,CLR,,0.00,WeatherDisplay:10.37,2013-08-13 16:12:00,
2013-08-13 11:14:00,62.0,45.2,30.13,NNE,30,5.6,10.4,54,0.00,CLR,,0.00,WeatherDisplay:10.37,2013-08-13 16:14:00,
2013-08-13 11:15:00,62.0,45.2,30.12,NNE,18,4.0,10.4,54,0.00,CLR,,0.00,WeatherDisplay:10.37,2013-08-13 16:15:00,
2013-08-13 11:16:00,62.0,45.2,30.12,North,357,5.3,8.1,54,0.00,CLR,,0.00,WeatherDisplay:10.37,2013-08-13 16:16:00,
2013-08-13 11:17:00,62.0,45.2,30.12,NE,40,4.3,6.9,54,0.00,CLR,,0.00,WeatherDisplay:10.37,2013-08-13 16:17:00,
2013-08-13 11:19:00,62.0,45.2,30.12,North,11,4.6,11.5,54,0.00,CLR,,0.00,WeatherDisplay:10.37,2013-08-13 16:19:00,
2013-08-13 11:20:00,62.0,45.2,30.12,NNE,20,3.6,5.8,54,0.00,CLR,,0.00,WeatherDisplay:10.37,2013-08-13 16:20:00,
2013-08-13 11:21:00,62.0,45.6,30.13,North,0,2.0,6.9,55,0.00,CLR,,0.00,WeatherDisplay:10.37,2013-08-13 16:21:00,
2013-08-13 11:22:00,62.0,45.6,30.12,ENE,78,3.3,6.5,55,0.00,CLR,,0.00,WeatherDisplay:10.37,2013-08-13 16:22:00,
2013-08-13 11:24:00,62.1,45.2,30.12,NE,34,4.4,6.9,54,0.00,CLR,,0.00,WeatherDisplay:10.37,2013-08-13 16:24:00,
2013-08-13 11:25:00,62.2,45.3,30.13,NNE,31,2.8,6.9,54,0.00,CLR,,0.00,WeatherDisplay:10.37,2013-08-13 16:25:00,
2013-08-13 11:26:00,62.3,45.4,30.13,ESE,102,4.2,8.1,54,0.00,CLR,,0.00,WeatherDisplay:10.37,2013-08-13 16:26:00,
2013-08-13 11:27:00,62.3,45.4,30.12,NW,305,3.7,6.9,54,0.00,CLR,,0.00,WeatherDisplay:10.37,2013-08-13 16:27:00,
2013-08-13 11:29:00,62.4,45.0,30.12,ESE,114,4.0,9.2,53,0.00,CLR,,0.00,WeatherDisplay:10.37,2013-08-13 16:29:00,
2013-08-13 11:30:00,62.4,45.5,30.13,ESE,102,4.2,8.6,54,0.00,CLR,,0.00,WeatherDisplay:10.37,2013-08-13 16:30:00,
2013-08-13 11:31:00,62.4,45.5,30.13,East,80,6.7,11.5,54,0.00,CLR,,0.00,WeatherDisplay:10.37,2013-08-13 16:31:00,
2013-08-13 11:32:00,62.5,45.6,30.13,ENE,72,5.7,12.7,54,0.00,CLR,,0.00,WeatherDisplay:10.37,2013-08-13 16:32:00,
2013-08-13 11:34:00,62.6,45.7,30.13,North,7,3.9,8.1,54,0.00,CLR,,0.00,WeatherDisplay:10.37,2013-08-13 16:34:00,
2013-08-13 11:35:00,62.7,45.8,30.13,NNE,18,3.0,9.2,54,0.00,CLR,,0.00,WeatherDisplay:10.37,2013-08-13 16:35:00,
2013-08-13 11:37:00,62.9,46.0,30.13,East,90,0.2,3.5,54,0.00,CLR,,0.00,WeatherDisplay:10.37,2013-08-13 16:37:00,
2013-08-13 11:39:00,63.2,46.8,30.13,North,352,2.5,5.5,55,0.00,CLR,,0.00,WeatherDisplay:10.37,2013-08-13 16:39:00,
2013-08-13 11:40:00,63.3,46.4,30.13,NNE,21,4.9,9.1,54,0.00,CLR,,0.00,WeatherDisplay:10.37,2013-08-13 16:40:00,
2013-08-13 11:41:00,63.3,46.4,30.13,North,360,5.1,9.2,54,0.00,CLR,,0.00,WeatherDisplay:10.37,2013-08-13 16:41:00,
2013-08-13 11:42:00,63.4,45.5,30.13,NNE,32,4.3,9.2,52,0.00,CLR,,0.00,WeatherDisplay:10.37,2013-08-13 16:42:00,
2013-08-13 11:44:00,63.6,46.1,30.13,North,360,4.5,8.1,53,0.00,CLR,,0.00,WeatherDisplay:10.37,2013-08-13 16:44:00,
2013-08-13 11:46:00,63.7,45.7,30.13,North,357,5.8,10.4,52,0.00,CLR,,0.00,WeatherDisplay:10.37,2013-08-13 16:46:00,
2013-08-13 11:47:00,63.7,45.2,30.13,West,271,3.1,4.6,51,0.00,CLR,,0.00,WeatherDisplay:10.37,2013-08-13 16:47:00,
2013-08-13 11:48:00,63.7,45.7,30.13,NW,318,1.0,3.5,52,0.00,CLR,,0.00,WeatherDisplay:10.37,2013-08-13 16:48:00,
2013-08-13 11:49:00,63.8,45.8,30.13,NW,312,1.6,2.3,52,0.00,CLR,,0.00,WeatherDisplay:10.37,2013-08-13 16:49:00,
2013-08-13 11:51:00,63.9,46.9,30.13,NNW,335,6.2,11.5,54,0.00,CLR,,0.00,WeatherDisplay:10.37,2013-08-13 16:51:00,
2013-08-13 11:52:00,64.0,46.5,30.13,ENE,66,6.2,9.2,53,0.00,CLR,,0.00,WeatherDisplay:10.37,2013-08-13 16:52:00,
2013-08-13 11:53:00,63.9,45.9,30.13,North,7,3.0,5.8,52,0.00,CLR,,0.00,WeatherDisplay:10.37,2013-08-13 16:53:00,
2013-08-13 11:54:00,64.0,46.0,30.13,East,82,6.5,8.1,52,0.00,CLR,,0.00,WeatherDisplay:10.37,2013-08-13 16:54:00,
2013-08-13 11:56:00,64.1,46.1,30.13,SSE,157,2.1,6.9,52,0.00,CLR,,0.00,WeatherDisplay:10.37,2013-08-13 16:56:00,
2013-08-13 11:57:00,64.2,46.2,30.13,East,79,1.8,3.5,52,0.00,CLR,,0.00,WeatherDisplay:10.37,2013-08-13 16:57:00,
2013-08-13 11:58:00,64.2,46.7,30.13,SSE,165,2.6,3.5,53,0.00,CLR,,0.00,WeatherDisplay:10.37,2013-08-13 16:58:00,
2013-08-13 12:00:00,64.2,46.2,30.13,NNW,337,4.1,6.2,52,0.00,CLR,,0.00,WeatherDisplay:10.37,2013-08-13 17:00:00,
2013-08-13 12:01:00,64.2,45.7,30.13,West,277,4.8,9.6,51,0.00,CLR,,0.00,WeatherDisplay:10.37,2013-08-13 17:01:00,
2013-08-13 12:02:00,64.2,45.2,30.13,North,8,6.2,10.4,50,0.00,CLR,,0.00,WeatherDisplay:10.37,2013-08-13 17:02:00,
2013-08-13 12:03:00,64.2,45.2,30.13,NW,316,5.0,10.4,50,0.00,CLR,,0.00,WeatherDisplay:10.37,2013-08-13 17:03:00,
2013-08-13 12:05:00,64.1,45.1,30.13,WNW,285,2.3,6.9,50,0.00,CLR,,0.00,WeatherDisplay:10.37,2013-08-13 17:05:00,
2013-08-13 12:07:00,64.1,45.1,30.13,North,349,3.7,6.9,50,0.00,CLR,,0.00,WeatherDisplay:10.37,2013-08-13 17:07:00,
2013-08-13 12:08:00,64.0,45.5,30.13,North,359,1.7,5.8,51,0.00,CLR,,0.00,WeatherDisplay:10.37,2013-08-13 17:08:00,
2013-08-13 12:12:00,64.4,45.9,30.13,NNE,25,5.1,9.7,51,0.00,CLR,,0.00,WeatherDisplay:10.37,2013-08-13 17:12:00,
2013-08-13 12:13:00,64.4,45.9,30.13,NE,38,4.4,8.1,51,0.00,CLR,,0.00,WeatherDisplay:10.37,2013-08-13 17:13:00,
2013-08-13 12:17:00,64.8,46.2,30.13,North,8,2.7,4.6,51,0.00,CLR,,0.00,WeatherDisplay:10.37,2013-08-13 17:17:00,
2013-08-13 12:18:00,64.6,46.1,30.13,NE,54,2.4,4.6,51,0.00,CLR,,0.00,WeatherDisplay:10.37,2013-08-13 17:18:00,
2013-08-13 12:22:00,65.3,46.7,30.13,NNW,342,5.7,10.4,51,0.00,CLR,,0.00,WeatherDisplay:10.37,2013-08-13 17:22:00,
2013-08-13 12:23:00,65.3,46.7,30.13,NW,304,5.3,12.7,51,0.00,CLR,,0.00,WeatherDisplay:10.37,2013-08-13 17:23:00,
2013-08-13 12:28:00,65.7,46.0,30.13,NNW,344,1.9,5.8,49,0.00,CLR,,0.00,WeatherDisplay:10.37,2013-08-13 17:28:00,
2013-08-13 12:33:00,65.7,47.1,30.13,NNE,18,1.5,4.6,51,0.00,CLR,,0.00,WeatherDisplay:10.37,2013-08-13 17:33:00,
2013-08-13 12:34:00,65.7,47.1,30.13,NE,44,3.5,6.9,51,0.00,CLR,,0.00,WeatherDisplay:10.37,2013-08-13 17:34:00,
2013-08-13 12:38:00,66.0,46.8,30.14,NNW,336,5.1,9.2,50,0.00,CLR,,0.00,WeatherDisplay:10.37,2013-08-13 17:38:00,
2013-08-13 12:39:00,66.0,46.3,30.14,North,360,3.7,5.8,49,0.00,CLR,,0.00,WeatherDisplay:10.37,2013-08-13 17:39:00,
2013-08-13 12:43:00,66.1,46.4,30.13,East,88,5.4,6.9,49,0.00,CLR,,0.00,WeatherDisplay:10.37,2013-08-13 17:43:00,
2013-08-13 12:44:00,66.2,45.9,30.13,NNW,346,4.0,9.2,48,0.00,CLR,,0.00,WeatherDisplay:10.37,2013-08-13 17:44:00,
2013-08-13 12:48:00,66.1,46.4,30.13,NW,322,3.0,9.2,49,0.00,CLR,,0.00,WeatherDisplay:10.37,2013-08-13 17:48:00,
2013-08-13 12:49:00,66.2,46.5,30.13,NNE,23,4.2,5.8,49,0.00,CLR,,0.00,WeatherDisplay:10.37,2013-08-13 17:49:00,
2013-08-13 12:53:00,66.0,46.3,30.13,WSW,244,0.1,3.5,49,0.00,CLR,,0.00,WeatherDisplay:10.37,2013-08-13 17:53:00,
2013-08-13 12:54:00,66.1,46.9,30.13,ESE,109,1.3,3.7,50,0.00,CLR,,0.00,WeatherDisplay:10.37,2013-08-13 17:54:00,
2013-08-13 12:55:00,66.2,47.0,30.13,NW,322,1.9,4.6,50,0.00,CLR,,0.00,WeatherDisplay:10.37,2013-08-13 17:55:00,
2013-08-13 12:58:00,66.4,46.7,30.13,East,79,3.2,8.1,49,0.00,CLR,,0.00,WeatherDisplay:10.37,2013-08-13 17:58:00,
2013-08-13 12:59:00,66.5,46.7,30.13,NNW,343,4.1,6.9,49,0.00,CLR,,0.00,WeatherDisplay:10.37,2013-08-13 17:59:00,
2013-08-13 13:00:00,66.4,46.1,30.13,NNE,20,4.4,9.2,48,0.00,CLR,,0.00,WeatherDisplay:10.37,2013-08-13 18:00:00,
2013-08-13 13:03:00,66.3,45.5,30.14,WNW,301,5.3,8.1,47,0.00,CLR,,0.00,WeatherDisplay:10.37,2013-08-13 18:03:00,
2013-08-13 13:04:00,66.3,46.0,30.14,NE,55,2.7,6.9,48,0.00,CLR,,0.00,WeatherDisplay:10.37,2013-08-13 18:04:00,
2013-08-13 13:05:00,66.4,46.1,30.13,North,353,0.9,4.6,48,0.00,CLR,,0.00,WeatherDisplay:10.37,2013-08-13 18:05:00,
2013-08-13 13:08:00,66.4,46.1,30.13,NW,313,7.0,7.0,48,0.00,CLR,,0.00,WeatherDisplay:10.37,2013-08-13 18:08:00,
2013-08-13 13:09:00,66.6,46.8,30.13,North,3,6.5,10.4,49,0.00,CLR,,0.00,WeatherDisplay:10.37,2013-08-13 18:09:00,
2013-08-13 13:10:00,66.7,46.9,30.13,WNW,294,2.4,5.8,49,0.00,CLR,,0.00,WeatherDisplay:10.37,2013-08-13 18:10:00,
2013-08-13 13:14:00,67.1,46.7,30.13,NW,306,1.7,4.8,48,0.00,CLR,,0.00,WeatherDisplay:10.37,2013-08-13 18:14:00,
2013-08-13 13:15:00,67.3,46.4,30.14,WNW,294,5.5,9.2,47,0.00,CLR,,0.00,WeatherDisplay:10.37,2013-08-13 18:15:00,
2013-08-13 13:19:00,67.4,45.9,30.13,WNW,302,4.0,6.5,46,0.00,CLR,,0.00,WeatherDisplay:10.37,2013-08-13 18:19:00,
2013-08-13 13:20:00,67.5,46.0,30.13,NW,305,4.1,6.9,46,0.00,CLR,,0.00,WeatherDisplay:10.37,2013-08-13 18:20:00,
2013-08-13 13:24:00,67.6,46.1,30.13,NNW,340,4.3,8.1,46,0.00,CLR,,0.00,WeatherDisplay:10.37,2013-08-13 18:24:00,
2013-08-13 13:25:00,67.6,46.1,30.13,East,89,4.2,6.9,46,0.00,CLR,,0.00,WeatherDisplay:10.37,2013-08-13 18:25:00,
2013-08-13 13:29:00,67.8,46.3,30.13,NNE,16,2.0,5.8,46,0.00,CLR,,0.00,WeatherDisplay:10.37,2013-08-13 18:29:00,
2013-08-13 13:30:00,67.9,46.3,30.13,WNW,289,3.4,5.8,46,0.00,CLR,,0.00,WeatherDisplay:10.37,2013-08-13 18:30:00,
2013-08-13 13:31:00,68.1,45.9,30.13,NNW,332,3.8,5.8,45,0.00,CLR,,0.00,WeatherDisplay:10.37,2013-08-13 18:31:00,
2013-08-13 13:35:00,68.4,46.2,30.13,WNW,287,5.2,8.1,45,0.00,CLR,,0.00,WeatherDisplay:10.37,2013-08-13 18:35:00,
2013-08-13 13:36:00,68.3,46.1,30.13,NW,305,4.0,5.8,45,0.00,CLR,,0.00,WeatherDisplay:10.37,2013-08-13 18:36:00,
2013-08-13 13:40:00,68.2,46.0,30.13,North,352,2.1,5.8,45,0.00,CLR,,0.00,WeatherDisplay:10.37,2013-08-13 18:40:00,
2013-08-13 13:41:00,68.1,45.9,30.13,North,349,2.8,4.6,45,0.00,CLR,,0.00,WeatherDisplay:10.37,2013-08-13 18:41:00,
2013-08-13 13:45:00,67.7,46.2,30.13,WNW,298,1.1,6.2,46,0.00,CLR,,0.00,WeatherDisplay:10.37,2013-08-13 18:45:00,
2013-08-13 13:46:00,67.5,46.0,30.13,NE,34,3.4,6.9,46,0.00,CLR,,0.00,WeatherDisplay:10.37,2013-08-13 18:46:00,
2013-08-13 13:50:00,67.4,45.9,30.13,East,100,4.4,6.9,46,0.00,CLR,,0.00,WeatherDisplay:10.37,2013-08-13 18:50:00,
2013-08-13 13:51:00,67.3,45.8,30.13,NNE,14,3.3,5.8,46,0.00,CLR,,0.00,WeatherDisplay:10.37,2013-08-13 18:51:00,
2013-08-13 13:55:00,67.2,46.8,30.13,ENE,66,5.1,5.8,48,0.00,CLR,,0.00,WeatherDisplay:10.37,2013-08-13 18:55:00,
2013-08-13 13:56:00,67.1,46.2,30.13,East,89,5.1,8.1,47,0.00,CLR,,0.00,WeatherDisplay:10.37,2013-08-13 18:56:00,
2013-08-13 13:57:00,67.1,46.7,30.13,ENE,58,3.7,7.6,48,0.00,CLR,,0.00,WeatherDisplay:10.37,2013-08-13 18:57:00,
2013-08-13 14:00:00,67.5,47.1,30.13,ESE,109,2.8,5.8,48,0.00,CLR,,0.00,WeatherDisplay:10.37,2013-08-13 19:00:00,
2013-08-13 14:01:00,67.6,47.2,30.13,NNW,340,1.8,4.6,48,0.00,CLR,,0.00,WeatherDisplay:10.37,2013-08-13 19:01:00,
2013-08-13 14:02:00,67.8,47.4,30.13,North,360,2.1,2.9,48,0.00,CLR,,0.00,WeatherDisplay:10.37,2013-08-13 19:02:00,
2013-08-13 14:05:00,68.6,47.0,30.13,WNW,288,4.0,8.1,46,0.00,CLR,,0.00,WeatherDisplay:10.37,2013-08-13 19:05:00,
2013-08-13 14:07:00,68.9,47.3,30.13,NNE,13,2.3,4.6,46,0.00,CLR,,0.00,WeatherDisplay:10.37,2013-08-13 19:07:00,
2013-08-13 14:11:00,69.6,46.7,30.13,NNW,333,4.7,6.9,44,0.00,CLR,,0.00,WeatherDisplay:10.37,2013-08-13 19:11:00,
2013-08-13 14:12:00,69.7,46.8,30.13,WNW,301,3.4,6.9,44,0.00,CLR,,0.00,WeatherDisplay:10.37,2013-08-13 19:12:00,
2013-08-13 14:13:00,69.8,46.9,30.13,North,359,1.5,2.8,44,0.00,CLR,,0.00,WeatherDisplay:10.37,2013-08-13 19:13:00,
2013-08-13 14:17:00,70.5,46.9,30.13,NW,323,3.5,6.9,43,0.00,CLR,,0.00,WeatherDisplay:10.37,2013-08-13 19:17:00,
2013-08-13 14:18:00,70.5,46.9,30.13,NNW,347,4.0,6.9,43,0.00,CLR,,0.00,WeatherDisplay:10.37,2013-08-13 19:18:00,
2013-08-13 14:22:00,71.1,46.8,30.13,NNE,13,2.1,4.6,42,0.00,CLR,,0.00,WeatherDisplay:10.37,2013-08-13 19:22:00,
2013-08-13 14:23:00,71.2,46.9,30.13,NNW,328,3.0,5.8,42,0.00,CLR,,0.00,WeatherDisplay:10.37,2013-08-13 19:23:00,
2013-08-13 14:27:00,71.2,46.3,30.12,West,260,3.2,9.2,41,0.00,CLR,,0.00,WeatherDisplay:10.37,2013-08-13 19:27:00,
2013-08-13 14:28:00,71.5,47.2,30.12,NW,305,1.2,5.8,42,0.00,CLR,,0.00,WeatherDisplay:10.37,2013-08-13 19:28:00,
2013-08-13 14:32:00,71.7,46.1,30.12,WNW,291,3.7,7.4,40,0.00,CLR,,0.00,WeatherDisplay:10.37,2013-08-13 19:32:00,
2013-08-13 14:33:00,71.7,46.7,30.12,NW,325,3.6,7.8,41,0.00,CLR,,0.00,WeatherDisplay:10.37,2013-08-13 19:33:00,
2013-08-13 14:37:00,71.1,45.5,30.12,West,268,3.7,6.9,40,0.00,CLR,,0.00,WeatherDisplay:10.37,2013-08-13 19:37:00,
2013-08-13 14:38:00,70.8,45.3,30.12,NNW,342,1.6,6.9,40,0.00,CLR,,0.00,WeatherDisplay:10.37,2013-08-13 19:38:00,
2013-08-13 14:39:00,70.8,45.3,30.12,NW,308,2.7,5.8,40,0.00,CLR,,0.00,WeatherDisplay:10.37,2013-08-13 19:39:00,
2013-08-13 14:42:00,70.2,46.0,30.12,North,8,4.9,6.9,42,0.00,CLR,,0.00,WeatherDisplay:10.37,2013-08-13 19:42:00,
2013-08-13 14:43:00,70.0,45.8,30.12,NE,51,4.6,6.9,42,0.00,CLR,,0.00,WeatherDisplay:10.37,2013-08-13 19:43:00,
2013-08-13 14:44:00,70.1,45.9,30.12,North,360,3.7,6.9,42,0.00,CLR,,0.00,WeatherDisplay:10.37,2013-08-13 19:44:00,
2013-08-13 14:47:00,70.0,45.8,30.12,NNW,339,3.1,6.9,42,0.00,CLR,,0.00,WeatherDisplay:10.37,2013-08-13 19:47:00,
2013-08-13 14:48:00,70.1,46.6,30.12,NE,47,6.4,10.4,43,0.00,CLR,,0.00,WeatherDisplay:10.37,2013-08-13 19:48:00,
2013-08-13 14:49:00,70.1,45.9,30.12,North,8,5.5,10.4,42,0.00,CLR,,0.00,WeatherDisplay:10.37,2013-08-13 19:49:00,
2013-08-13 14:53:00,70.4,46.2,30.12,ESE,116,2.3,3.5,42,0.00,CLR,,0.00,WeatherDisplay:10.37,2013-08-13 19:53:00,
2013-08-13 14:54:00,70.5,46.3,30.12,North,359,2.4,4.6,42,0.00,CLR,,0.00,WeatherDisplay:10.37,2013-08-13 19:54:00,
2013-08-13 14:58:00,70.8,45.9,30.12,NNW,337,2.2,6.9,41,0.00,CLR,,0.00,WeatherDisplay:10.37,2013-08-13 19:58:00,
2013-08-13 14:59:00,71.0,46.1,30.12,NNW,337,0.2,3.5,41,0.00,CLR,,0.00,WeatherDisplay:10.37,2013-08-13 19:59:00,
2013-08-13 15:03:00,71.0,46.1,30.12,East,95,1.8,3.5,41,0.00,CLR,,0.00,WeatherDisplay:10.37,2013-08-13 20:03:00,
2013-08-13 15:04:00,70.9,46.0,30.12,ENE,64,2.5,3.5,41,0.00,CLR,,0.00,WeatherDisplay:10.37,2013-08-13 20:04:00,
2013-08-13 15:05:00,70.9,46.0,30.12,NNW,346,2.1,5.2,41,0.00,CLR,,0.00,WeatherDisplay:10.37,2013-08-13 20:05:00,
2013-08-13 15:08:00,70.4,45.6,30.12,WNW,302,4.3,8.1,41,0.00,CLR,,0.00,WeatherDisplay:10.37,2013-08-13 20:08:00,
2013-08-13 15:09:00,70.3,45.5,30.12,North,357,2.6,6.9,41,0.00,CLR,,0.00,WeatherDisplay:10.37,2013-08-13 20:09:00,
2013-08-13 15:10:00,70.2,45.4,30.12,NNW,339,1.1,9.2,41,0.00,CLR,,0.00,WeatherDisplay:10.37,2013-08-13 20:10:00,
2013-08-13 15:13:00,69.6,45.5,30.12,NNW,346,3.2,6.9,42,0.00,CLR,,0.00,WeatherDisplay:10.37,2013-08-13 20:13:00,
2013-08-13 15:14:00,69.4,45.3,30.12,NNE,13,3.6,6.9,42,0.00,CLR,,0.00,WeatherDisplay:10.37,2013-08-13 20:14:00,
2013-08-13 15:15:00,69.4,45.3,30.12,WNW,282,3.2,5.8,42,0.00,CLR,,0.00,WeatherDisplay:10.37,2013-08-13 20:15:00,
2013-08-13 15:18:00,69.1,45.7,30.11,North,360,4.3,7.9,43,0.00,CLR,,0.00,WeatherDisplay:10.37,2013-08-13 20:18:00,
2013-08-13 15:19:00,69.0,45.6,30.11,NNE,17,4.7,8.1,43,0.00,CLR,,0.00,WeatherDisplay:10.37,2013-08-13 20:19:00,
2013-08-13 15:20:00,68.9,45.5,30.12,NW,320,2.0,5.8,43,0.00,CLR,,0.00,WeatherDisplay:10.37,2013-08-13 20:20:00,
2013-08-13 15:24:00,69.0,45.6,30.11,NE,44,7.4,11.5,43,0.00,CLR,,0.00,WeatherDisplay:10.37,2013-08-13 20:24:00,
2013-08-13 15:25:00,69.1,45.7,30.11,NW,313,3.2,6.9,43,0.00,CLR,,0.00,WeatherDisplay:10.37,2013-08-13 20:25:00,
2013-08-13 15:29:00,69.6,46.7,30.11,NE,45,2.6,5.8,44,0.00,CLR,,0.00,WeatherDisplay:10.37,2013-08-13 20:29:00,
2013-08-13 15:30:00,69.8,47.5,30.11,NNW,329,3.2,6.9,45,0.00,CLR,,0.00,WeatherDisplay:10.37,2013-08-13 20:30:00,
2013-08-13 15:31:00,69.9,47.0,30.11,NW,315,6.0,8.1,44,0.00,CLR,,0.00,WeatherDisplay:10.37,2013-08-13 20:31:00,
2013-08-13 15:34:00,70.2,47.3,30.11,NW,312,2.7,4.6,44,0.00,CLR,,0.00,WeatherDisplay:10.37,2013-08-13 20:34:00,
2013-08-13 15:35:00,70.3,47.3,30.11,West,260,2.4,3.5,44,0.00,CLR,,0.00,WeatherDisplay:10.37,2013-08-13 20:35:00,
2013-08-13 15:36:00,70.2,46.6,30.11,NE,35,3.0,4.6,43,0.00,CLR,,0.00,WeatherDisplay:10.37,2013-08-13 20:36:00,
2013-08-13 15:39:00,70.5,46.9,30.11,NW,316,3.3,3.5,43,0.00,CLR,,0.00,WeatherDisplay:10.37,2013-08-13 20:39:00,
2013-08-13 15:40:00,70.7,47.1,30.11,NW,323,5.1,8.1,43,0.00,CLR,,0.00,WeatherDisplay:10.37,2013-08-13 20:40:00,
2013-08-13 15:41:00,70.8,47.2,30.11,NNW,336,4.2,8.1,43,0.00,CLR,,0.00,WeatherDisplay:10.37,2013-08-13 20:41:00,
2013-08-13 15:44:00,71.0,46.1,30.11,North,350,5.7,9.2,41,0.00,CLR,,0.00,WeatherDisplay:10.37,2013-08-13 20:44:00,
2013-08-13 15:45:00,70.9,46.0,30.11,NNW,333,4.7,9.2,41,0.00,CLR,,0.00,WeatherDisplay:10.37,2013-08-13 20:45:00,
2013-08-13 15:46:00,71.0,46.1,30.11,NNE,16,2.0,4.6,41,0.00,CLR,,0.00,WeatherDisplay:10.37,2013-08-13 20:46:00,
2013-08-13 15:50:00,70.8,45.9,30.11,NNW,335,1.8,4.6,41,0.00,CLR,,0.00,WeatherDisplay:10.37,2013-08-13 20:50:00,
2013-08-13 15:51:00,70.7,46.5,30.11,NNE,14,3.8,6.9,42,0.00,CLR,,0.00,WeatherDisplay:10.37,2013-08-13 20:51:00,
2013-08-13 15:55:00,70.7,46.5,30.11,NNE,16,0.1,2.3,42,0.00,CLR,,0.00,WeatherDisplay:10.37,2013-08-13 20:55:00,
2013-08-13 15:56:00,70.6,46.4,30.11,NNE,13,1.8,3.5,42,0.00,CLR,,0.00,WeatherDisplay:10.37,2013-08-13 20:56:00,
2013-08-13 16:00:00,71.1,46.8,30.11,WSW,258,0.1,2.3,42,0.00,CLR,,0.00,WeatherDisplay:10.37,2013-08-13 21:00:00,
2013-08-13 16:01:00,71.2,46.9,30.11,WSW,258,0.3,1.2,42,0.00,CLR,,0.00,WeatherDisplay:10.37,2013-08-13 21:01:00,
2013-08-13 16:05:00,72.1,47.1,30.11,NW,306,4.2,4.6,41,0.00,CLR,,0.00,WeatherDisplay:10.37,2013-08-13 21:05:00,
2013-08-13 16:06:00,72.0,47.0,30.11,North,349,3.7,8.1,41,0.00,CLR,,0.00,WeatherDisplay:10.37,2013-08-13 21:06:00,
2013-08-13 16:07:00,72.2,46.5,30.11,ENE,73,3.8,5.8,40,0.00,CLR,,0.00,WeatherDisplay:10.37,2013-08-13 21:07:00,
2013-08-13 16:10:00,72.5,47.5,30.11,NNE,16,2.1,7.0,41,0.00,CLR,,0.00,WeatherDisplay:10.37,2013-08-13 21:10:00,
2013-08-13 16:11:00,72.6,48.2,30.11,NNE,18,4.1,6.9,42,0.00,CLR,,0.00,WeatherDisplay:10.37,2013-08-13 21:11:00,
2013-08-13 16:12:00,72.8,48.4,30.11,North,4,3.3,5.8,42,0.00,CLR,,0.00,WeatherDisplay:10.37,2013-08-13 21:12:00,
2013-08-13 16:15:00,73.1,47.3,30.11,NNW,337,1.6,2.3,40,0.00,CLR,,0.00,WeatherDisplay:10.37,2013-08-13 21:15:00,
2013-08-13 16:16:00,73.2,47.4,30.11,NW,309,0.9,2.4,40,0.00,CLR,,0.00,WeatherDisplay:10.37,2013-08-13 21:16:00,
2013-08-13 16:17:00,73.1,47.3,30.11,NW,320,1.5,3.5,40,0.00,CLR,,0.00,WeatherDisplay:10.37,2013-08-13 21:17:00,
2013-08-13 16:20:00,73.4,47.6,30.11,North,356,2.5,6.4,40,0.00,CLR,,0.00,WeatherDisplay:10.37,2013-08-13 21:20:00,
2013-08-13 16:22:00,73.4,46.9,30.11,SSE,155,3.0,6.9,39,0.00,CLR,,0.00,WeatherDisplay:10.37,2013-08-13 21:22:00,
2013-08-13 16:25:00,73.3,46.2,30.11,NW,319,4.2,7.8,38,0.00,CLR,,0.00,WeatherDisplay:10.37,2013-08-13 21:25:00,
2013-08-13 16:27:00,73.3,46.2,30.11,NW,323,5.3,8.1,38,0.00,CLR,,0.00,WeatherDisplay:10.37,2013-08-13 21:27:00,
2013-08-13 16:28:00,73.3,46.2,30.11,NNW,328,2.2,6.9,38,0.00,CLR,,0.00,WeatherDisplay:10.37,2013-08-13 21:28:00,
2013-08-13 16:30:00,72.8,45.7,30.10,NW,320,1.2,8.1,38,0.00,CLR,,0.00,WeatherDisplay:10.37,2013-08-13 21:30:00,
2013-08-13 16:32:00,72.7,46.3,30.11,NW,319,1.3,3.5,39,0.00,CLR,,0.00,WeatherDisplay:10.37,2013-08-13 21:32:00,
2013-08-13 16:33:00,72.8,46.4,30.10,NW,319,0.0,1.2,39,0.00,CLR,,0.00,WeatherDisplay:10.37,2013-08-13 21:33:00,
2013-08-13 16:35:00,72.8,47.1,30.10,NW,311,3.1,6.9,40,0.00,CLR,,0.00,WeatherDisplay:10.37,2013-08-13 21:35:00,
2013-08-13 16:37:00,72.8,47.1,30.11,WNW,295,2.6,5.8,40,0.00,CLR,,0.00,WeatherDisplay:10.37,2013-08-13 21:37:00,
2013-08-13 16:38:00,72.8,46.4,30.10,NNE,28,4.4,6.9,39,0.00,CLR,,0.00,WeatherDisplay:10.37,2013-08-13 21:38:00,
2013-08-13 16:40:00,72.7,45.6,30.10,WNW,299,5.7,8.1,38,0.00,CLR,,0.00,WeatherDisplay:10.37,2013-08-13 21:40:00,
2013-08-13 16:42:00,72.9,45.8,30.10,WNW,299,3.4,6.9,38,0.00,CLR,,0.00,WeatherDisplay:10.37,2013-08-13 21:42:00,
2013-08-13 16:43:00,72.8,45.7,30.10,West,277,4.2,4.2,38,0.00,CLR,,0.00,WeatherDisplay:10.37,2013-08-13 21:43:00,
2013-08-13 16:46:00,72.8,46.4,30.11,WNW,299,3.4,5.8,39,0.00,CLR,,0.00,WeatherDisplay:10.37,2013-08-13 21:46:00,
2013-08-13 16:47:00,72.7,46.3,30.10,NW,313,1.2,3.5,39,0.00,CLR,,0.00,WeatherDisplay:10.37,2013-08-13 21:47:00,
2013-08-13 16:48:00,72.6,46.9,30.10,NW,320,1.3,4.8,40,0.00,CLR,,0.00,WeatherDisplay:10.37,2013-08-13 21:48:00,
2013-08-13 16:49:00,72.6,46.2,30.10,North,357,2.9,5.8,39,0.00,CLR,,0.00,WeatherDisplay:10.37,2013-08-13 21:49:00,
2013-08-13 16:51:00,72.4,46.0,30.10,NNW,329,2.9,4.7,39,0.00,CLR,,0.00,WeatherDisplay:10.37,2013-08-13 21:51:00,
2013-08-13 16:52:00,72.2,45.9,30.10,WNW,295,3.8,5.8,39,0.00,CLR,,0.00,WeatherDisplay:10.37,2013-08-13 21:52:00,
2013-08-13 16:53:00,72.1,45.8,30.10,WNW,289,0.3,1.2,39,0.00,CLR,,0.00,WeatherDisplay:10.37,2013-08-13 21:53:00,
2013-08-13 16:54:00,72.0,46.3,30.10,NNW,337,1.1,3.0,40,0.00,CLR,,0.00,WeatherDisplay:10.37,2013-08-13 21:54:00,
2013-08-13 16:56:00,71.8,45.5,30.11,NNE,28,3.1,8.1,39,0.00,CLR,,0.00,WeatherDisplay:10.37,2013-08-13 21:56:00,
2013-08-13 16:57:00,71.6,46.0,30.10,NE,44,2.3,4.6,40,0.00,CLR,,0.00,WeatherDisplay:10.37,2013-08-13 21:57:00,
2013-08-13 16:58:00,71.5,45.9,30.10,North,360,2.4,4.6,40,0.00,CLR,,0.00,WeatherDisplay:10.37,2013-08-13 21:58:00,
2013-08-13 16:59:00,71.3,45.7,30.10,NE,56,3.5,5.8,40,0.00,CLR,,0.00,WeatherDisplay:10.37,2013-08-13 21:59:00,
2013-08-13 17:01:00,71.2,46.3,30.10,North,6,1.5,3.5,41,0.00,CLR,,0.00,WeatherDisplay:10.37,2013-08-13 22:01:00,
2013-08-13 17:02:00,71.0,46.1,30.10,NNW,329,2.6,2.6,41,0.00,CLR,,0.00,WeatherDisplay:10.37,2013-08-13 22:02:00,
2013-08-13 17:03:00,71.0,46.1,30.10,NW,313,2.7,3.5,41,0.00,CLR,,0.00,WeatherDisplay:10.37,2013-08-13 22:03:00,
2013-08-13 17:04:00,70.9,46.0,30.10,West,280,3.8,3.8,41,0.00,CLR,,0.00,WeatherDisplay:10.37,2013-08-13 22:04:00,
2013-08-13 17:06:00,70.6,46.4,30.10,NNW,335,1.5,5.7,42,0.00,CLR,,0.00,WeatherDisplay:10.37,2013-08-13 22:06:00,
2013-08-13 17:07:00,70.6,46.4,30.10,NNW,335,4.6,5.8,42,0.00,CLR,,0.00,WeatherDisplay:10.37,2013-08-13 22:07:00,
2013-08-13 17:08:00,70.7,46.5,30.10,North,359,4.9,8.1,42,0.00,CLR,,0.00,WeatherDisplay:10.37,2013-08-13 22:08:00,
2013-08-13 17:09:00,70.4,45.6,30.10,North,352,4.3,8.1,41,0.00,CLR,,0.00,WeatherDisplay:10.37,2013-08-13 22:09:00,
2013-08-13 17:11:00,70.3,46.1,30.10,NNW,343,3.4,8.1,42,0.00,CLR,,0.00,WeatherDisplay:10.37,2013-08-13 22:11:00,
2013-08-13 17:12:00,70.3,46.1,30.10,North,360,5.6,8.1,42,0.00,CLR,,0.00,WeatherDisplay:10.37,2013-08-13 22:12:00,
2013-08-13 17:13:00,70.3,46.1,30.10,NNE,28,4.6,9.2,42,0.00,CLR,,0.00,WeatherDisplay:10.37,2013-08-13 22:13:00,
2013-08-13 17:14:00,70.2,46.0,30.10,NW,306,2.9,5.8,42,0.00,CLR,,0.00,WeatherDisplay:10.37,2013-08-13 22:14:00,
2013-08-13 17:17:00,69.8,45.7,30.10,NNW,342,3.7,6.9,42,0.00,CLR,,0.00,WeatherDisplay:10.37,2013-08-13 22:17:00,
2013-08-13 17:18:00,69.7,45.6,30.10,NNE,18,3.0,8.1,42,0.00,CLR,,0.00,WeatherDisplay:10.37,2013-08-13 22:18:00,
2013-08-13 17:19:00,69.7,46.2,30.10,North,360,1.9,3.5,43,0.00,CLR,,0.00,WeatherDisplay:10.37,2013-08-13 22:19:00,
2013-08-13 17:22:00,69.5,46.0,30.10,NE,48,0.4,4.6,43,0.00,CLR,,0.00,WeatherDisplay:10.37,2013-08-13 22:22:00,
2013-08-13 17:23:00,69.5,46.0,30.10,NW,316,1.7,3.5,43,0.00,CLR,,0.00,WeatherDisplay:10.37,2013-08-13 22:23:00,
2013-08-13 17:24:00,69.3,45.8,30.10,NW,319,3.1,3.5,43,0.00,CLR,,0.00,WeatherDisplay:10.37,2013-08-13 22:24:00,
2013-08-13 17:27:00,69.2,45.7,30.10,NW,326,1.4,4.6,43,0.00,CLR,,0.00,WeatherDisplay:10.37,2013-08-13 22:27:00,
2013-08-13 17:29:00,69.1,45.7,30.10,NW,306,1.2,3.5,43,0.00,CLR,,0.00,WeatherDisplay:10.37,2013-08-13 22:29:00,
2013-08-13 17:32:00,68.9,46.1,30.10,NNW,346,0.2,3.5,44,0.00,CLR,,0.00,WeatherDisplay:10.37,2013-08-13 22:32:00,
2013-08-13 17:34:00,68.7,45.9,30.10,NW,304,2.4,4.6,44,0.00,CLR,,0.00,WeatherDisplay:10.37,2013-08-13 22:34:00,
2013-08-13 17:35:00,68.7,45.9,30.10,NNW,347,1.1,2.3,44,0.00,CLR,,0.00,WeatherDisplay:10.37,2013-08-13 22:35:00,
2013-08-13 17:37:00,68.4,45.6,30.10,NW,315,2.9,3.5,44,0.00,CLR,,0.00,WeatherDisplay:10.37,2013-08-13 22:37:00,
2013-08-13 17:39:00,68.5,46.3,30.10,NNE,23,3.4,3.5,45,0.00,CLR,,0.00,WeatherDisplay:10.37,2013-08-13 22:39:00,
2013-08-13 17:40:00,68.4,46.2,30.10,NNW,332,3.3,6.9,45,0.00,CLR,,0.00,WeatherDisplay:10.37,2013-08-13 22:40:00,
2013-08-13 17:42:00,68.3,46.1,30.10,NNW,333,0.5,3.5,45,0.00,CLR,,0.00,WeatherDisplay:10.37,2013-08-13 22:42:00,
2013-08-13 17:44:00,68.1,46.5,30.10,NE,40,1.6,3.5,46,0.00,CLR,,0.00,WeatherDisplay:10.37,2013-08-13 22:44:00,
2013-08-13 17:45:00,68.1,46.5,30.10,NE,37,2.2,2.4,46,0.00,CLR,,0.00,WeatherDisplay:10.37,2013-08-13 22:45:00,
2013-08-13 17:48:00,68.1,46.5,30.10,West,281,2.7,5.8,46,0.00,CLR,,0.00,WeatherDisplay:10.37,2013-08-13 22:48:00,
2013-08-13 17:49:00,68.1,46.5,30.10,North,0,0.8,4.6,46,0.00,CLR,,0.00,WeatherDisplay:10.37,2013-08-13 22:49:00,
2013-08-13 17:50:00,68.1,46.5,30.10,NE,47,0.7,3.5,46,0.00,CLR,,0.00,WeatherDisplay:10.37,2013-08-13 22:50:00,
2013-08-13 17:51:00,68.0,46.4,30.10,NNE,30,0.7,3.5,46,0.00,CLR,,0.00,WeatherDisplay:10.37,2013-08-13 22:51:00,
2013-08-13 17:53:00,68.1,46.5,30.10,NW,309,1.0,5.8,46,0.00,CLR,,0.00,WeatherDisplay:10.37,2013-08-13 22:53:00,
2013-08-13 17:55:00,68.0,45.9,30.10,NW,320,1.9,5.8,45,0.00,CLR,,0.00,WeatherDisplay:10.37,2013-08-13 22:55:00,
2013-08-13 17:56:00,68.0,45.9,30.10,North,352,2.2,6.0,45,0.00,CLR,,0.00,WeatherDisplay:10.37,2013-08-13 22:56:00,
2013-08-13 17:58:00,67.9,45.8,30.10,NW,306,3.1,5.8,45,0.00,CLR,,0.00,WeatherDisplay:10.37,2013-08-13 22:58:00,
2013-08-13 18:00:00,67.8,46.3,30.10,North,7,0.2,1.2,46,0.00,CLR,,0.00,WeatherDisplay:10.37,2013-08-13 23:00:00,
2013-08-13 18:01:00,67.8,46.3,30.10,North,7,0.0,0.0,46,0.00,CLR,,0.00,WeatherDisplay:10.37,2013-08-13 23:01:00,
2013-08-13 18:04:00,67.6,46.1,30.10,NW,312,2.2,3.5,46,0.00,CLR,,0.00,WeatherDisplay:10.37,2013-08-13 23:04:00,
2013-08-13 18:05:00,67.6,46.1,30.10,NW,308,1.2,3.5,46,0.00,CLR,,0.00,WeatherDisplay:10.37,2013-08-13 23:05:00,
2013-08-13 18:06:00,67.4,45.9,30.10,NNW,339,2.7,2.7,46,0.00,CLR,,0.00,WeatherDisplay:10.37,2013-08-13 23:06:00,
2013-08-13 18:09:00,67.4,45.9,30.10,NW,308,2.6,5.3,46,0.00,CLR,,0.00,WeatherDisplay:10.37,2013-08-13 23:09:00,
2013-08-13 18:10:00,67.3,45.8,30.10,NW,313,1.5,3.5,46,0.00,CLR,,0.00,WeatherDisplay:10.37,2013-08-13 23:10:00,
2013-08-13 18:11:00,67.3,45.8,30.10,NW,313,3.5,3.7,46,0.00,CLR,,0.00,WeatherDisplay:10.37,2013-08-13 23:11:00,
2013-08-13 18:14:00,67.0,46.1,30.10,NW,325,2.5,3.5,47,0.00,CLR,,0.00,WeatherDisplay:10.37,2013-08-13 23:14:00,
2013-08-13 18:15:00,67.0,46.1,30.10,WNW,284,1.6,3.5,47,0.00,CLR,,0.00,WeatherDisplay:10.37,2013-08-13 23:15:00,
2013-08-13 18:16:00,66.9,46.0,30.10,WNW,292,1.6,3.5,47,0.00,CLR,,0.00,WeatherDisplay:10.37,2013-08-13 23:16:00,
2013-08-13 18:17:00,67.0,46.1,30.10,WNW,292,0.0,1.2,47,0.00,CLR,,0.00,WeatherDisplay:10.37,2013-08-13 23:17:00,
2013-08-13 18:19:00,66.7,45.8,30.10,NNW,344,1.1,1.8,47,0.00,CLR,,0.00,WeatherDisplay:10.37,2013-08-13 23:19:00,
2013-08-13 18:21:00,66.7,45.8,30.10,NNW,332,1.7,4.6,47,0.00,CLR,,0.00,WeatherDisplay:10.37,2013-08-13 23:21:00,
2013-08-13 18:22:00,66.4,46.1,30.10,NW,319,0.6,1.4,48,0.00,CLR,,0.00,WeatherDisplay:10.37,2013-08-13 23:22:00,
2013-08-13 18:24:00,66.3,46.0,30.10,NNW,342,0.0,2.3,48,0.00,CLR,,0.00,WeatherDisplay:10.37,2013-08-13 23:24:00,
2013-08-13 18:26:00,66.2,46.5,30.10,NNW,342,0.0,0.0,49,0.00,CLR,,0.00,WeatherDisplay:10.37,2013-08-13 23:26:00,
2013-08-13 18:27:00,66.2,46.5,30.10,NNW,333,0.1,2.3,49,0.00,CLR,,0.00,WeatherDisplay:10.37,2013-08-13 23:27:00,
2013-08-13 18:28:00,66.2,46.5,30.10,WNW,291,0.9,2.3,49,0.00,CLR,,0.00,WeatherDisplay:10.37,2013-08-13 23:28:00,
2013-08-13 18:29:00,66.1,46.4,30.10,North,4,0.5,4.6,49,0.00,CLR,,0.00,WeatherDisplay:10.37,2013-08-13 23:29:00,
2013-08-13 18:31:00,65.9,46.2,30.10,NNW,337,0.5,4.6,49,0.00,CLR,,0.00,WeatherDisplay:10.37,2013-08-13 23:31:00,
2013-08-13 18:32:00,65.9,46.2,30.10,NNW,346,0.8,2.3,49,0.00,CLR,,0.00,WeatherDisplay:10.37,2013-08-13 23:32:00,
2013-08-13 18:33:00,65.9,46.2,30.10,NNW,346,0.0,2.3,49,0.00,CLR,,0.00,WeatherDisplay:10.37,2013-08-13 23:33:00,
2013-08-13 18:35:00,65.8,46.6,30.10,NNW,346,0.0,0.0,50,0.00,CLR,,0.00,WeatherDisplay:10.37,2013-08-13 23:35:00,
2013-08-13 18:36:00,65.7,46.5,30.10,NW,305,1.6,3.5,50,0.00,CLR,,0.00,WeatherDisplay:10.37,2013-08-13 23:36:00,
2013-08-13 18:37:00,65.6,46.5,30.10,North,356,0.2,3.5,50,0.00,CLR,,0.00,WeatherDisplay:10.37,2013-08-13 23:37:00,
2013-08-13 18:38:00,65.5,46.4,30.10,North,356,0.0,1.2,50,0.00,CLR,,0.00,WeatherDisplay:10.37,2013-08-13 23:38:00,
2013-08-13 18:40:00,65.4,46.3,30.10,North,356,0.0,0.0,50,0.00,CLR,,0.00,WeatherDisplay:10.37,2013-08-13 23:40:00,
2013-08-13 18:41:00,65.3,46.2,30.10,NNW,339,0.8,0.8,50,0.00,CLR,,0.00,WeatherDisplay:10.37,2013-08-13 23:41:00,
2013-08-13 18:42:00,65.2,46.6,30.10,NNW,339,0.0,2.3,51,0.00,CLR,,0.00,WeatherDisplay:10.37,2013-08-13 23:42:00,
2013-08-13 18:44:00,65.1,46.5,30.10,NNW,339,0.0,0.0,51,0.00,CLR,,0.00,WeatherDisplay:10.37,2013-08-13 23:44:00,
2013-08-13 18:45:00,65.1,46.5,30.10,NNW,339,0.0,0.0,51,0.00,CLR,,0.00,WeatherDisplay:10.37,2013-08-13 23:45:00,
2013-08-13 18:46:00,64.8,46.2,30.10,NNW,339,0.0,0.0,51,0.00,CLR,,0.00,WeatherDisplay:10.37,2013-08-13 23:46:00,
2013-08-13 18:47:00,64.9,46.3,30.10,NNW,339,0.0,0.0,51,0.00,CLR,,0.00,WeatherDisplay:10.37,2013-08-13 23:47:00,
2013-08-13 18:48:00,64.8,46.2,30.10,NNW,339,0.0,0.0,51,0.00,CLR,,0.00,WeatherDisplay:10.37,2013-08-13 23:48:00,
2013-08-13 18:49:00,64.8,46.2,30.10,NNW,339,0.0,0.0,51,0.00,CLR,,0.00,WeatherDisplay:10.37,2013-08-13 23:49:00,
2013-08-13 18:50:00,64.8,46.8,30.10,NNW,346,0.6,0.6,52,0.00,CLR,,0.00,WeatherDisplay:10.37,2013-08-13 23:50:00,
2013-08-13 18:52:00,64.8,46.8,30.10,WNW,298,0.7,2.3,52,0.00,CLR,,0.00,WeatherDisplay:10.37,2013-08-13 23:52:00,
2013-08-13 18:53:00,64.6,46.6,30.10,NW,322,0.2,0.5,52,0.00,CLR,,0.00,WeatherDisplay:10.37,2013-08-13 23:53:00,
2013-08-13 18:54:00,64.6,46.6,30.10,NNE,20,0.2,2.3,52,0.00,CLR,,0.00,WeatherDisplay:10.37,2013-08-13 23:54:00,
2013-08-13 18:55:00,64.7,46.7,30.10,NW,308,0.6,0.0,52,0.00,CLR,,0.00,WeatherDisplay:10.37,2013-08-13 23:55:00,
2013-08-13 18:57:00,64.6,46.6,30.10,NW,308,0.0,0.0,52,0.00,CLR,,0.00,WeatherDisplay:10.37,2013-08-13 23:57:00,
2013-08-13 18:58:00,64.5,46.5,30.10,NW,308,0.0,0.0,52,0.00,CLR,,0.00,WeatherDisplay:10.37,2013-08-13 23:58:00,
2013-08-13 19:00:00,64.5,47.0,30.10,NW,308,0.0,0.0,53,0.00,CLR,,0.00,WeatherDisplay:10.37,2013-08-14 00:00:00,
2013-08-13 19:02:00,64.6,47.1,30.10,NW,308,0.0,0.0,53,0.00,CLR,,0.00,WeatherDisplay:10.37,2013-08-14 00:02:00,
2013-08-13 19:03:00,64.5,47.0,30.10,NW,308,0.0,0.0,53,0.00,CLR,,0.00,WeatherDisplay:10.37,2013-08-14 00:03:00,
2013-08-13 19:05:00,64.5,47.0,30.11,NW,308,0.0,0.0,53,0.00,CLR,,0.00,WeatherDisplay:10.37,2013-08-14 00:05:00,
2013-08-13 19:06:00,64.6,47.1,30.11,NW,308,0.0,0.0,53,0.00,CLR,,0.00,WeatherDisplay:10.37,2013-08-14 00:06:00,
2013-08-13 19:07:00,64.6,47.6,30.11,NW,308,0.0,0.0,54,0.00,CLR,,0.00,WeatherDisplay:10.37,2013-08-14 00:07:00,
2013-08-13 19:08:00,64.5,47.5,30.11,WNW,298,0.2,0.0,54,0.00,CLR,,0.00,WeatherDisplay:10.37,2013-08-14 00:08:00,
2013-08-13 19:10:00,64.6,47.6,30.11,WNW,298,0.0,0.0,54,0.00,CLR,,0.00,WeatherDisplay:10.37,2013-08-14 00:10:00,
2013-08-13 19:11:00,64.5,47.5,30.11,WNW,298,0.0,0.0,54,0.00,CLR,,0.00,WeatherDisplay:10.37,2013-08-14 00:11:00,
2013-08-13 19:12:00,64.5,47.5,30.11,WSW,239,0.7,0.0,54,0.00,CLR,,0.00,WeatherDisplay:10.37,2013-08-14 00:12:00,
2013-08-13 19:13:00,64.4,47.4,30.11,NW,304,0.1,2.3,54,0.00,CLR,,0.00,WeatherDisplay:10.37,2013-08-14 00:13:00,
2013-08-13 19:15:00,64.6,47.6,30.11,NW,312,0.0,2.3,54,0.00,CLR,,0.00,WeatherDisplay:10.37,2013-08-14 00:15:00,
2013-08-13 19:16:00,64.7,47.7,30.11,NW,312,0.0,0.0,54,0.00,CLR,,0.00,WeatherDisplay:10.37,2013-08-14 00:16:00,
2013-08-13 19:18:00,64.6,47.6,30.11,NW,312,0.0,0.0,54,0.00,CLR,,0.00,WeatherDisplay:10.37,2013-08-14 00:18:00,
2013-08-13 19:19:00,64.6,47.6,30.11,NW,312,0.0,0.0,54,0.00,CLR,,0.00,WeatherDisplay:10.37,2013-08-14 00:19:00,
2013-08-13 19:20:00,64.6,47.6,30.11,NW,312,0.0,0.0,54,0.00,CLR,,0.00,WeatherDisplay:10.37,2013-08-14 00:20:00,
2013-08-13 19:21:00,64.6,47.6,30.11,NW,312,0.0,0.0,54,0.00,CLR,,0.00,WeatherDisplay:10.37,2013-08-14 00:21:00,
2013-08-13 19:23:00,64.6,47.6,30.11,WNW,301,0.0,2.3,54,0.00,CLR,,0.00,WeatherDisplay:10.37,2013-08-14 00:23:00,
2013-08-13 19:24:00,64.4,47.4,30.11,WNW,301,0.0,0.0,54,0.00,CLR,,0.00,WeatherDisplay:10.37,2013-08-14 00:24:00,
2013-08-13 19:25:00,64.6,47.6,30.11,WNW,301,0.0,0.0,54,0.00,CLR,,0.00,WeatherDisplay:10.37,2013-08-14 00:25:00,
2013-08-13 19:26:00,64.6,47.6,30.11,WNW,301,0.0,0.0,54,0.00,CLR,,0.00,WeatherDisplay:10.37,2013-08-14 00:26:00,
2013-08-13 19:28:00,64.6,47.6,30.11,NNW,340,1.5,3.5,54,0.00,CLR,,0.00,WeatherDisplay:10.37,2013-08-14 00:28:00,
2013-08-13 19:29:00,64.5,47.5,30.11,NNW,340,0.4,2.3,54,0.00,CLR,,0.00,WeatherDisplay:10.37,2013-08-14 00:29:00,
2013-08-13 19:30:00,64.3,47.3,30.11,NNW,340,0.0,0.0,54,0.00,CLR,,0.00,WeatherDisplay:10.37,2013-08-14 00:30:00,
2013-08-13 19:31:00,64.5,47.5,30.11,NNW,340,0.0,0.0,54,0.00,CLR,,0.00,WeatherDisplay:10.37,2013-08-14 00:31:00,
2013-08-13 19:33:00,64.4,47.4,30.11,NNW,340,0.0,0.0,54,0.00,CLR,,0.00,WeatherDisplay:10.37,2013-08-14 00:33:00,
2013-08-13 19:34:00,64.4,47.4,30.11,NNW,340,0.0,0.0,54,0.00,CLR,,0.00,WeatherDisplay:10.37,2013-08-14 00:34:00,
2013-08-13 19:35:00,64.4,47.9,30.11,NNE,16,0.3,1.2,55,0.00,CLR,,0.00,WeatherDisplay:10.37,2013-08-14 00:35:00,
2013-08-13 19:36:00,64.4,47.9,30.11,NNE,16,0.3,1.2,55,0.00,CLR,,0.00,WeatherDisplay:10.37,2013-08-14 00:36:00,
2013-08-13 19:38:00,64.2,47.7,30.10,NNE,16,0.0,0.0,55,0.00,CLR,,0.00,WeatherDisplay:10.37,2013-08-14 00:38:00,
2013-08-13 19:39:00,64.4,47.9,30.10,NNE,16,0.0,0.0,55,0.00,CLR,,0.00,WeatherDisplay:10.37,2013-08-14 00:39:00,
2013-08-13 19:40:00,64.4,47.9,30.10,NNE,16,0.0,0.0,55,0.00,CLR,,0.00,WeatherDisplay:10.37,2013-08-14 00:40:00,
2013-08-13 19:41:00,64.4,48.4,30.10,NNE,16,0.0,0.0,56,0.00,CLR,,0.00,WeatherDisplay:10.37,2013-08-14 00:41:00,
2013-08-13 19:43:00,64.3,48.3,30.11,NW,322,0.0,3.5,56,0.00,CLR,,0.00,WeatherDisplay:10.37,2013-08-14 00:43:00,
2013-08-13 19:45:00,64.2,48.2,30.11,NW,322,0.0,0.0,56,0.00,CLR,,0.00,WeatherDisplay:10.37,2013-08-14 00:45:00,
2013-08-13 19:46:00,64.2,48.2,30.11,NW,322,0.0,0.0,56,0.00,CLR,,0.00,WeatherDisplay:10.37,2013-08-14 00:46:00,
2013-08-13 19:48:00,64.2,48.6,30.11,NW,323,0.3,1.2,57,0.00,CLR,,0.00,WeatherDisplay:10.37,2013-08-14 00:48:00,
2013-08-13 19:50:00,64.1,48.5,30.11,NW,323,0.0,0.0,57,0.00,CLR,,0.00,WeatherDisplay:10.37,2013-08-14 00:50:00,
2013-08-13 19:51:00,64.1,48.5,30.11,NW,323,0.0,0.0,57,0.00,CLR,,0.00,WeatherDisplay:10.37,2013-08-14 00:51:00,
2013-08-13 19:53:00,64.1,49.0,30.11,NE,56,0.8,3.5,58,0.00,CLR,,0.00,WeatherDisplay:10.37,2013-08-14 00:53:00,
2013-08-13 19:55:00,64.0,48.9,30.11,NNE,20,0.0,2.3,58,0.00,CLR,,0.00,WeatherDisplay:10.37,2013-08-14 00:55:00,
2013-08-13 19:56:00,64.0,48.9,30.11,NNE,20,0.0,0.0,58,0.00,CLR,,0.00,WeatherDisplay:10.37,2013-08-14 00:56:00,
2013-08-13 19:57:00,63.8,48.7,30.11,NNE,20,0.0,0.0,58,0.00,CLR,,0.00,WeatherDisplay:10.37,2013-08-14 00:57:00,
2013-08-13 19:59:00,63.8,48.7,30.11,NNE,20,0.0,0.9,58,0.00,CLR,,0.00,WeatherDisplay:10.37,2013-08-14 00:59:00,
2013-08-13 20:00:00,63.8,48.7,30.11,North,4,0.0,0.0,58,0.00,CLR,,0.00,WeatherDisplay:10.37,2013-08-14 01:00:00,
2013-08-13 20:02:00,63.6,49.0,30.11,North,4,0.0,0.0,59,0.00,CLR,,0.00,WeatherDisplay:10.37,2013-08-14 01:02:00,
2013-08-13 20:04:00,63.6,49.0,30.11,NNE,28,1.7,3.5,59,0.00,CLR,,0.00,WeatherDisplay:10.37,2013-08-14 01:04:00,
2013-08-13 20:06:00,63.5,48.9,30.11,NE,51,0.2,1.2,59,0.00,CLR,,0.00,WeatherDisplay:10.37,2013-08-14 01:06:00,
2013-08-13 20:07:00,63.4,48.8,30.11,NE,51,0.0,0.0,59,0.00,CLR,,0.00,WeatherDisplay:10.37,2013-08-14 01:07:00,
2013-08-13 20:08:00,63.4,48.8,30.11,NE,51,0.0,0.0,59,0.00,CLR,,0.00,WeatherDisplay:10.37,2013-08-14 01:08:00,
2013-08-13 20:09:00,63.4,48.8,30.11,NNE,24,0.4,1.2,59,0.00,CLR,,0.00,WeatherDisplay:10.37,2013-08-14 01:09:00,
2013-08-13 20:11:00,63.3,48.7,30.11,NNE,24,0.0,0.0,59,0.00,CLR,,0.00,WeatherDisplay:10.37,2013-08-14 01:11:00,
2013-08-13 20:12:00,63.1,48.5,30.11,NNE,24,0.0,0.0,59,0.00,CLR,,0.00,WeatherDisplay:10.37,2013-08-14 01:12:00,
2013-08-13 20:13:00,63.1,48.5,30.11,NNE,24,0.0,0.0,59,0.00,CLR,,0.00,WeatherDisplay:10.37,2013-08-14 01:13:00,
2013-08-13 20:14:00,63.1,48.5,30.11,NNE,24,0.0,0.0,59,0.00,CLR,,0.00,WeatherDisplay:10.37,2013-08-14 01:14:00,
2013-08-13 20:16:00,63.0,48.9,30.11,NNE,24,0.0,0.0,60,0.00,CLR,,0.00,WeatherDisplay:10.37,2013-08-14 01:16:00,
2013-08-13 20:17:00,62.8,48.7,30.11,NNE,24,0.0,0.0,60,0.00,CLR,,0.00,WeatherDisplay:10.37,2013-08-14 01:17:00,
2013-08-13 20:18:00,62.7,48.6,30.11,NNE,24,0.0,0.0,60,0.00,CLR,,0.00,WeatherDisplay:10.37,2013-08-14 01:18:00,
2013-08-13 20:19:00,62.6,48.1,30.11,NNE,24,0.0,0.0,59,0.00,CLR,,0.00,WeatherDisplay:10.37,2013-08-14 01:19:00,
2013-08-13 20:21:00,62.5,48.4,30.11,NE,35,0.0,0.9,60,0.00,CLR,,0.00,WeatherDisplay:10.37,2013-08-14 01:21:00,
2013-08-13 20:23:00,62.5,48.4,30.11,ENE,65,0.0,0.0,60,0.00,CLR,,0.00,WeatherDisplay:10.37,2013-08-14 01:23:00,
2013-08-13 20:25:00,62.3,48.2,30.11,ENE,65,0.0,0.0,60,0.00,CLR,,0.00,WeatherDisplay:10.37,2013-08-14 01:25:00,
2013-08-13 20:26:00,62.3,48.2,30.11,ENE,65,0.0,0.0,60,0.00,CLR,,0.00,WeatherDisplay:10.37,2013-08-14 01:26:00,
2013-08-13 20:28:00,62.2,48.1,30.11,ENE,65,0.0,0.0,60,0.00,CLR,,0.00,WeatherDisplay:10.37,2013-08-14 01:28:00,
2013-08-13 20:29:00,62.1,48.0,30.11,ENE,65,0.0,0.0,60,0.00,CLR,,0.00,WeatherDisplay:10.37,2013-08-14 01:29:00,
2013-08-13 20:30:00,62.0,48.4,30.11,ENE,65,0.0,0.0,61,0.00,CLR,,0.00,WeatherDisplay:10.37,2013-08-14 01:30:00,
2013-08-13 20:31:00,61.9,48.3,30.11,ENE,65,0.0,0.0,61,0.00,CLR,,0.00,WeatherDisplay:10.37,2013-08-14 01:31:00,
2013-08-13 20:32:00,61.9,48.3,30.11,ENE,65,0.0,0.0,61,0.00,CLR,,0.00,WeatherDisplay:10.37,2013-08-14 01:32:00,
2013-08-13 20:33:00,61.8,48.2,30.11,ENE,58,0.6,1.2,61,0.00,CLR,,0.00,WeatherDisplay:10.37,2013-08-14 01:33:00,
2013-08-13 20:34:00,61.7,48.1,30.11,ENE,58,0.0,1.2,61,0.00,CLR,,0.00,WeatherDisplay:10.37,2013-08-14 01:34:00,
2013-08-13 20:35:00,61.7,48.1,30.11,ENE,58,0.0,0.0,61,0.00,CLR,,0.00,WeatherDisplay:10.37,2013-08-14 01:35:00,
2013-08-13 20:36:00,61.7,48.1,30.11,East,92,0.0,0.6,61,0.00,CLR,,0.00,WeatherDisplay:10.37,2013-08-14 01:36:00,
2013-08-13 20:37:00,61.6,48.0,30.11,NE,51,0.2,0.5,61,0.00,CLR,,0.00,WeatherDisplay:10.37,2013-08-14 01:37:00,
2013-08-13 20:38:00,61.6,48.0,30.11,NE,51,0.0,1.2,61,0.00,CLR,,0.00,WeatherDisplay:10.37,2013-08-14 01:38:00,
2013-08-13 20:39:00,61.5,47.9,30.11,NE,51,0.0,0.0,61,0.00,CLR,,0.00,WeatherDisplay:10.37,2013-08-14 01:39:00,
2013-08-13 20:40:00,61.5,48.4,30.11,NE,51,0.0,0.0,62,0.00,CLR,,0.00,WeatherDisplay:10.37,2013-08-14 01:40:00,
2013-08-13 20:42:00,61.4,48.3,30.12,NE,51,0.0,0.0,62,0.00,CLR,,0.00,WeatherDisplay:10.37,2013-08-14 01:42:00,
2013-08-13 20:43:00,61.3,48.2,30.12,NE,51,0.0,0.0,62,0.00,CLR,,0.00,WeatherDisplay:10.37,2013-08-14 01:43:00,
2013-08-13 20:45:00,61.2,48.1,30.12,NE,51,0.0,0.0,62,0.00,CLR,,0.00,WeatherDisplay:10.37,2013-08-14 01:45:00,
2013-08-13 20:47:00,61.0,47.9,30.12,NNE,24,0.0,0.0,62,0.00,CLR,,0.00,WeatherDisplay:10.37,2013-08-14 01:47:00,
2013-08-13 20:48:00,60.8,47.7,30.12,NNE,24,0.0,0.0,62,0.00,CLR,,0.00,WeatherDisplay:10.37,2013-08-14 01:48:00,
2013-08-13 20:50:00,60.8,47.7,30.12,NE,38,0.4,1.2,62,0.00,CLR,,0.00,WeatherDisplay:10.37,2013-08-14 01:50:00,
2013-08-13 20:51:00,60.7,47.6,30.12,NE,38,0.0,1.2,62,0.00,CLR,,0.00,WeatherDisplay:10.37,2013-08-14 01:51:00,
2013-08-13 20:52:00,60.8,48.1,30.12,NE,38,0.0,0.0,63,0.00,CLR,,0.00,WeatherDisplay:10.37,2013-08-14 01:52:00,
2013-08-13 20:54:00,60.5,47.4,30.12,NE,38,0.0,0.0,62,0.00,CLR,,0.00,WeatherDisplay:10.37,2013-08-14 01:54:00,
2013-08-13 20:55:00,60.5,47.8,30.12,NE,38,0.0,0.0,63,0.00,CLR,,0.00,WeatherDisplay:10.37,2013-08-14 01:55:00,
2013-08-13 20:56:00,60.5,47.8,30.12,NE,41,0.1,0.0,63,0.00,CLR,,0.00,WeatherDisplay:10.37,2013-08-14 01:56:00,
2013-08-13 20:58:00,60.5,47.8,30.12,NE,41,0.0,0.0,63,0.00,CLR,,0.00,WeatherDisplay:10.37,2013-08-14 01:58:00,
2013-08-13 20:59:00,60.3,48.1,30.12,ENE,61,0.0,1.2,64,0.00,CLR,,0.00,WeatherDisplay:10.37,2013-08-14 01:59:00,
2013-08-13 21:00:00,60.3,48.1,30.12,NE,38,0.7,2.3,64,0.00,CLR,,0.00,WeatherDisplay:10.37,2013-08-14 02:00:00,
2013-08-13 21:01:00,60.3,48.1,30.12,NE,38,0.0,1.2,64,0.00,CLR,,0.00,WeatherDisplay:10.37,2013-08-14 02:01:00,
2013-08-13 21:03:00,60.3,48.1,30.12,NE,45,0.7,1.2,64,0.00,CLR,,0.00,WeatherDisplay:10.37,2013-08-14 02:03:00,
2013-08-13 21:04:00,60.1,47.9,30.13,NNE,21,0.6,2.3,64,0.00,CLR,,0.00,WeatherDisplay:10.37,2013-08-14 02:04:00,
2013-08-13 21:05:00,60.1,47.9,30.13,NNE,21,0.0,0.0,64,0.00,CLR,,0.00,WeatherDisplay:10.37,2013-08-14 02:05:00,
2013-08-13 21:06:00,60.1,47.9,30.13,NNE,32,0.4,1.1,64,0.00,CLR,,0.00,WeatherDisplay:10.37,2013-08-14 02:06:00,
2013-08-13 21:08:00,60.2,48.0,30.13,NNW,339,0.3,2.3,64,0.00,CLR,,0.00,WeatherDisplay:10.37,2013-08-14 02:08:00,
2013-08-13 21:09:00,60.2,48.0,30.13,North,10,1.1,2.3,64,0.00,CLR,,0.00,WeatherDisplay:10.37,2013-08-14 02:09:00,
2013-08-13 21:10:00,60.1,47.9,30.13,North,10,0.0,1.4,64,0.00,CLR,,0.00,WeatherDisplay:10.37,2013-08-14 02:10:00,
2013-08-13 21:11:00,60.2,48.0,30.13,North,10,0.7,1.9,64,0.00,CLR,,0.00,WeatherDisplay:10.37,2013-08-14 02:11:00,
2013-08-13 21:13:00,60.3,48.5,30.13,ENE,71,0.1,1.2,65,0.00,CLR,,0.00,WeatherDisplay:10.37,2013-08-14 02:13:00,
2013-08-13 21:14:00,60.2,48.4,30.13,ENE,71,0.0,0.0,65,0.00,CLR,,0.00,WeatherDisplay:10.37,2013-08-14 02:14:00,
2013-08-13 21:15:00,60.1,48.3,30.13,ENE,71,0.0,0.0,65,0.00,CLR,,0.00,WeatherDisplay:10.37,2013-08-14 02:15:00,
2013-08-13 21:16:00,60.2,48.0,30.13,ENE,71,0.0,0.0,64,0.00,CLR,,0.00,WeatherDisplay:10.37,2013-08-14 02:16:00,
2013-08-13 21:18:00,60.1,47.9,30.13,ENE,71,0.0,0.0,64,0.00,CLR,,0.00,WeatherDisplay:10.37,2013-08-14 02:18:00,
2013-08-13 21:19:00,60.2,48.0,30.13,ENE,71,0.0,0.0,64,0.00,CLR,,0.00,WeatherDisplay:10.37,2013-08-14 02:19:00,
2013-08-13 21:20:00,60.3,48.5,30.13,ENE,71,0.0,0.0,65,0.00,CLR,,0.00,WeatherDisplay:10.37,2013-08-14 02:20:00,
2013-08-13 21:21:00,60.1,48.3,30.13,ENE,71,0.0,0.0,65,0.00,CLR,,0.00,WeatherDisplay:10.37,2013-08-14 02:21:00,
2013-08-13 21:22:00,60.2,48.4,30.13,ENE,78,0.1,1.3,65,0.00,CLR,,0.00,WeatherDisplay:10.37,2013-08-14 02:22:00,
2013-08-13 21:24:00,60.1,48.3,30.13,East,79,1.3,2.3,65,0.00,CLR,,0.00,WeatherDisplay:10.37,2013-08-14 02:24:00,
2013-08-13 21:25:00,60.0,48.2,30.13,ENE,71,0.0,2.3,65,0.00,CLR,,0.00,WeatherDisplay:10.37,2013-08-14 02:25:00,
2013-08-13 21:26:00,60.0,48.2,30.13,ENE,71,0.0,0.0,65,0.00,CLR,,0.00,WeatherDisplay:10.37,2013-08-14 02:26:00,
2013-08-13 21:27:00,60.0,48.2,30.13,ENE,71,0.0,0.0,65,0.00,CLR,,0.00,WeatherDisplay:10.37,2013-08-14 02:27:00,
2013-08-13 21:29:00,60.0,48.2,30.13,East,93,1.1,2.3,65,0.00,CLR,,0.00,WeatherDisplay:10.37,2013-08-14 02:29:00,
2013-08-13 21:30:00,59.8,48.0,30.14,NNE,23,0.7,2.3,65,0.00,CLR,,0.00,WeatherDisplay:10.37,2013-08-14 02:30:00,
2013-08-13 21:31:00,59.8,48.4,30.14,NNE,24,0.6,2.3,66,0.00,CLR,,0.00,WeatherDisplay:10.37,2013-08-14 02:31:00,
2013-08-13 21:32:00,59.8,48.4,30.14,NNE,23,0.2,1.2,66,0.00,CLR,,0.00,WeatherDisplay:10.37,2013-08-14 02:32:00,
2013-08-13 21:34:00,59.7,48.3,30.14,NNE,20,0.2,1.2,66,0.00,CLR,,0.00,WeatherDisplay:10.37,2013-08-14 02:34:00,
2013-08-13 21:36:00,59.5,48.1,30.14,ENE,66,0.1,1.1,66,0.00,CLR,,0.00,WeatherDisplay:10.37,2013-08-14 02:36:00,
2013-08-13 21:37:00,59.5,48.1,30.14,ENE,66,0.0,1.2,66,0.00,CLR,,0.00,WeatherDisplay:10.37,2013-08-14 02:37:00,
2013-08-13 21:39:00,59.4,48.0,30.14,East,95,0.8,2.3,66,0.00,CLR,,0.00,WeatherDisplay:10.37,2013-08-14 02:39:00,
2013-08-13 21:41:00,59.4,48.0,30.14,East,85,0.3,1.2,66,0.00,CLR,,0.00,WeatherDisplay:10.37,2013-08-14 02:41:00,
2013-08-13 21:42:00,59.3,47.9,30.14,SSE,150,0.3,1.1,66,0.00,CLR,,0.00,WeatherDisplay:10.37,2013-08-14 02:42:00,
2013-08-13 21:44:00,59.1,48.1,30.14,SE,136,0.0,1.2,67,0.00,CLR,,0.00,WeatherDisplay:10.37,2013-08-14 02:44:00,
2013-08-13 21:46:00,59.1,48.1,30.14,SE,136,0.0,0.0,67,0.00,CLR,,0.00,WeatherDisplay:10.37,2013-08-14 02:46:00,
2013-08-13 21:47:00,58.9,48.0,30.14,SE,136,0.0,0.0,67,0.00,CLR,,0.00,WeatherDisplay:10.37,2013-08-14 02:47:00,
2013-08-13 21:49:00,58.9,48.0,30.14,NNE,14,1.0,2.3,67,0.00,CLR,,0.00,WeatherDisplay:10.37,2013-08-14 02:49:00,
2013-08-13 21:51:00,58.8,47.9,30.14,NE,34,0.1,1.2,67,0.00,CLR,,0.00,WeatherDisplay:10.37,2013-08-14 02:51:00,
2013-08-13 21:52:00,58.7,47.8,30.14,NE,34,0.0,0.0,67,0.00,CLR,,0.00,WeatherDisplay:10.37,2013-08-14 02:52:00,
2013-08-13 21:53:00,58.8,47.9,30.14,NE,34,0.0,0.0,67,0.00,CLR,,0.00,WeatherDisplay:10.37,2013-08-14 02:53:00,
2013-08-13 21:54:00,58.6,47.7,30.14,NE,34,0.0,0.0,67,0.00,CLR,,0.00,WeatherDisplay:10.37,2013-08-14 02:54:00,
2013-08-13 21:55:00,58.5,47.6,30.14,NE,34,0.0,0.0,67,0.00,CLR,,0.00,WeatherDisplay:10.37,2013-08-14 02:55:00,
2013-08-13 21:56:00,58.5,47.6,30.14,NE,34,0.0,0.0,67,0.00,CLR,,0.00,WeatherDisplay:10.37,2013-08-14 02:56:00,
2013-08-13 21:57:00,58.5,47.6,30.14,NE,34,0.0,0.0,67,0.00,CLR,,0.00,WeatherDisplay:10.37,2013-08-14 02:57:00,
2013-08-13 21:58:00,58.4,47.5,30.14,NE,34,0.0,0.0,67,0.00,CLR,,0.00,WeatherDisplay:10.37,2013-08-14 02:58:00,
2013-08-13 21:59:00,58.5,47.6,30.14,NE,34,0.0,0.0,67,0.00,CLR,,0.00,WeatherDisplay:10.37,2013-08-14 02:59:00,
2013-08-13 22:00:00,58.4,47.5,30.14,NE,34,0.0,0.0,67,0.00,CLR,,0.00,WeatherDisplay:10.37,2013-08-14 03:00:00,
2013-08-13 22:01:00,58.4,47.5,30.14,NE,34,0.0,0.0,67,0.00,CLR,,0.00,WeatherDisplay:10.37,2013-08-14 03:01:00,
2013-08-13 22:02:00,58.3,47.4,30.14,NE,34,0.0,0.0,67,0.00,CLR,,0.00,WeatherDisplay:10.37,2013-08-14 03:02:00,
2013-08-13 22:03:00,58.3,47.8,30.14,NE,34,0.0,0.0,68,0.00,CLR,,0.00,WeatherDisplay:10.37,2013-08-14 03:03:00,
2013-08-13 22:04:00,58.2,47.7,30.14,NE,34,0.0,0.0,68,0.00,CLR,,0.00,WeatherDisplay:10.37,2013-08-14 03:04:00,
2013-08-13 22:05:00,58.1,47.6,30.14,NE,34,0.0,0.0,68,0.00,CLR,,0.00,WeatherDisplay:10.37,2013-08-14 03:05:00,
2013-08-13 22:06:00,58.1,47.6,30.14,NE,34,0.0,0.0,68,0.00,CLR,,0.00,WeatherDisplay:10.37,2013-08-14 03:06:00,
2013-08-13 22:07:00,58.0,47.5,30.14,NE,34,0.0,0.0,68,0.00,CLR,,0.00,WeatherDisplay:10.37,2013-08-14 03:07:00,
2013-08-13 22:08:00,57.9,47.4,30.14,NE,34,0.0,0.0,68,0.00,CLR,,0.00,WeatherDisplay:10.37,2013-08-14 03:08:00,
2013-08-13 22:10:00,57.8,47.3,30.14,NE,34,0.0,0.0,68,0.00,CLR,,0.00,WeatherDisplay:10.37,2013-08-14 03:10:00,
2013-08-13 22:11:00,57.7,47.6,30.14,NE,34,0.0,0.0,69,0.00,CLR,,0.00,WeatherDisplay:10.37,2013-08-14 03:11:00,
2013-08-13 22:12:00,57.6,47.5,30.14,NE,34,0.0,0.0,69,0.00,CLR,,0.00,WeatherDisplay:10.37,2013-08-14 03:12:00,
2013-08-13 22:13:00,57.4,47.3,30.14,NE,34,0.0,0.0,69,0.00,CLR,,0.00,WeatherDisplay:10.37,2013-08-14 03:13:00,
2013-08-13 22:15:00,57.4,47.3,30.14,NE,34,0.0,0.0,69,0.00,CLR,,0.00,WeatherDisplay:10.37,2013-08-14 03:15:00,
2013-08-13 22:16:00,57.2,47.5,30.14,NE,34,0.0,0.0,70,0.00,CLR,,0.00,WeatherDisplay:10.37,2013-08-14 03:16:00,
2013-08-13 22:17:00,57.3,47.6,30.14,NE,34,0.0,0.0,70,0.00,CLR,,0.00,WeatherDisplay:10.37,2013-08-14 03:17:00,
2013-08-13 22:18:00,57.1,47.4,30.14,NE,34,0.0,0.0,70,0.00,CLR,,0.00,WeatherDisplay:10.37,2013-08-14 03:18:00,
2013-08-13 22:20:00,56.9,47.2,30.14,NE,34,0.0,0.0,70,0.00,CLR,,0.00,WeatherDisplay:10.37,2013-08-14 03:20:00,
2013-08-13 22:21:00,56.9,47.2,30.14,NE,34,0.0,0.0,70,0.00,CLR,,0.00,WeatherDisplay:10.37,2013-08-14 03:21:00,
2013-08-13 22:22:00,56.9,47.2,30.14,NE,34,0.0,0.0,70,0.00,CLR,,0.00,WeatherDisplay:10.37,2013-08-14 03:22:00,
2013-08-13 22:23:00,56.7,47.0,30.14,NE,34,0.0,0.0,70,0.00,CLR,,0.00,WeatherDisplay:10.37,2013-08-14 03:23:00,
2013-08-13 22:25:00,56.6,46.9,30.14,NE,34,0.0,0.0,70,0.00,CLR,,0.00,WeatherDisplay:10.37,2013-08-14 03:25:00,
2013-08-13 22:26:00,56.5,46.8,30.14,NE,34,0.0,0.0,70,0.00,CLR,,0.00,WeatherDisplay:10.37,2013-08-14 03:26:00,
2013-08-13 22:27:00,56.5,46.8,30.14,NE,34,0.0,0.0,70,0.00,CLR,,0.00,WeatherDisplay:10.37,2013-08-14 03:27:00,
2013-08-13 22:28:00,56.3,46.6,30.14,NE,34,0.0,0.0,70,0.00,CLR,,0.00,WeatherDisplay:10.37,2013-08-14 03:28:00,
2013-08-13 22:30:00,56.2,46.9,30.14,NE,34,0.0,0.0,71,0.00,CLR,,0.00,WeatherDisplay:10.37,2013-08-14 03:30:00,
2013-08-13 22:31:00,56.2,46.9,30.14,NE,34,0.0,0.0,71,0.00,CLR,,0.00,WeatherDisplay:10.37,2013-08-14 03:31:00,
2013-08-13 22:32:00,56.1,46.8,30.14,NE,34,0.0,0.0,71,0.00,CLR,,0.00,WeatherDisplay:10.37,2013-08-14 03:32:00,
2013-08-13 22:34:00,55.9,47.0,30.14,NE,34,0.0,0.0,72,0.00,CLR,,0.00,WeatherDisplay:10.37,2013-08-14 03:34:00,
2013-08-13 22:35:00,55.8,46.9,30.14,NE,34,0.0,0.0,72,0.00,CLR,,0.00,WeatherDisplay:10.37,2013-08-14 03:35:00,
2013-08-13 22:36:00,55.7,46.8,30.14,NE,34,0.0,0.0,72,0.00,CLR,,0.00,WeatherDisplay:10.37,2013-08-14 03:36:00,
2013-08-13 22:37:00,55.7,46.8,30.14,NE,34,0.0,0.0,72,0.00,CLR,,0.00,WeatherDisplay:10.37,2013-08-14 03:37:00,
2013-08-13 22:38:00,55.6,46.7,30.14,NE,34,0.0,0.0,72,0.00,CLR,,0.00,WeatherDisplay:10.37,2013-08-14 03:38:00,
2013-08-13 22:39:00,55.5,46.6,30.14,NE,34,0.0,0.0,72,0.00,CLR,,0.00,WeatherDisplay:10.37,2013-08-14 03:39:00,
2013-08-13 22:41:00,55.4,46.5,30.14,NE,34,0.0,0.0,72,0.00,CLR,,0.00,WeatherDisplay:10.37,2013-08-14 03:41:00,
2013-08-13 22:42:00,55.4,46.5,30.14,NE,34,0.0,0.0,72,0.00,CLR,,0.00,WeatherDisplay:10.37,2013-08-14 03:42:00,
2013-08-13 22:43:00,55.3,46.4,30.15,NE,34,0.0,0.0,72,0.00,CLR,,0.00,WeatherDisplay:10.37,2013-08-14 03:43:00,
2013-08-13 22:45:00,55.1,46.2,30.15,NE,34,0.0,0.0,72,0.00,CLR,,0.00,WeatherDisplay:10.37,2013-08-14 03:45:00,
2013-08-13 22:46:00,55.1,46.2,30.15,NE,34,0.0,0.0,72,0.00,CLR,,0.00,WeatherDisplay:10.37,2013-08-14 03:46:00,
2013-08-13 22:47:00,54.9,46.0,30.15,NE,34,0.0,0.0,72,0.00,CLR,,0.00,WeatherDisplay:10.37,2013-08-14 03:47:00,
2013-08-13 22:48:00,54.9,46.0,30.15,NE,34,0.0,0.0,72,0.00,CLR,,0.00,WeatherDisplay:10.37,2013-08-14 03:48:00,
2013-08-13 22:50:00,54.7,45.8,30.15,NE,34,0.0,0.0,72,0.00,CLR,,0.00,WeatherDisplay:10.37,2013-08-14 03:50:00,
2013-08-13 22:51:00,54.7,45.8,30.15,NE,34,0.0,0.0,72,0.00,CLR,,0.00,WeatherDisplay:10.37,2013-08-14 03:51:00,
2013-08-13 22:52:00,54.6,45.8,30.15,NE,34,0.0,0.0,72,0.00,CLR,,0.00,WeatherDisplay:10.37,2013-08-14 03:52:00,
2013-08-13 22:53:00,54.6,46.1,30.15,NE,34,0.0,0.0,73,0.00,CLR,,0.00,WeatherDisplay:10.37,2013-08-14 03:53:00,
2013-08-13 22:55:00,54.4,45.9,30.15,NE,34,0.0,0.0,73,0.00,CLR,,0.00,WeatherDisplay:10.37,2013-08-14 03:55:00,
2013-08-13 22:56:00,54.4,46.3,30.15,NE,34,0.0,0.0,74,0.00,CLR,,0.00,WeatherDisplay:10.37,2013-08-14 03:56:00,
2013-08-13 22:57:00,54.2,46.1,30.15,NE,34,0.0,0.0,74,0.00,CLR,,0.00,WeatherDisplay:10.37,2013-08-14 03:57:00,
2013-08-13 22:58:00,54.3,46.2,30.15,NE,34,0.0,0.0,74,0.00,CLR,,0.00,WeatherDisplay:10.37,2013-08-14 03:58:00,
2013-08-13 23:00:00,54.2,46.1,30.15,NE,34,0.0,0.0,74,0.00,CLR,,0.00,WeatherDisplay:10.37,2013-08-14 04:00:00,
2013-08-13 23:01:00,54.1,46.0,30.15,NE,34,0.0,0.0,74,0.00,CLR,,0.00,WeatherDisplay:10.37,2013-08-14 04:01:00,
2013-08-13 23:06:00,53.9,46.2,30.15,NE,34,0.0,0.0,75,0.00,CLR,,0.00,WeatherDisplay:10.37,2013-08-14 04:06:00,
2013-08-13 23:11:00,53.5,45.8,30.15,NE,34,0.0,0.0,75,0.00,CLR,,0.00,WeatherDisplay:10.37,2013-08-14 04:11:00,
2013-08-13 23:12:00,53.5,45.8,30.15,NE,34,0.0,0.0,75,0.00,CLR,,0.00,WeatherDisplay:10.37,2013-08-14 04:12:00,
2013-08-13 23:16:00,53.2,45.5,30.15,NE,34,0.0,0.0,75,0.00,CLR,,0.00,WeatherDisplay:10.37,2013-08-14 04:16:00,
2013-08-13 23:17:00,53.3,45.6,30.15,NE,34,0.0,0.0,75,0.00,CLR,,0.00,WeatherDisplay:10.37,2013-08-14 04:17:00,
2013-08-13 23:18:00,53.1,45.4,30.15,NE,34,0.0,0.0,75,0.00,CLR,,0.00,WeatherDisplay:10.37,2013-08-14 04:18:00,
2013-08-13 23:21:00,52.9,45.2,30.15,NE,34,0.0,0.0,75,0.00,CLR,,0.00,WeatherDisplay:10.37,2013-08-14 04:21:00,
2013-08-13 23:22:00,52.9,45.2,30.15,NE,34,0.0,0.0,75,0.00,CLR,,0.00,WeatherDisplay:10.37,2013-08-14 04:22:00,
2013-08-13 23:23:00,52.8,45.1,30.15,NE,34,0.0,0.0,75,0.00,CLR,,0.00,WeatherDisplay:10.37,2013-08-14 04:23:00,
2013-08-13 23:26:00,52.7,45.0,30.15,NE,34,0.0,0.0,75,0.00,CLR,,0.00,WeatherDisplay:10.37,2013-08-14 04:26:00,
2013-08-13 23:27:00,52.6,45.2,30.15,NE,34,0.0,0.0,76,0.00,CLR,,0.00,WeatherDisplay:10.37,2013-08-14 04:27:00,
2013-08-13 23:28:00,52.6,45.2,30.15,NE,34,0.0,0.0,76,0.00,CLR,,0.00,WeatherDisplay:10.37,2013-08-14 04:28:00,
2013-08-13 23:29:00,52.5,45.2,30.15,NE,34,0.0,0.0,76,0.00,CLR,,0.00,WeatherDisplay:10.37,2013-08-14 04:29:00,
2013-08-13 23:31:00,52.4,45.1,30.15,NE,34,0.0,0.0,76,0.00,CLR,,0.00,WeatherDisplay:10.37,2013-08-14 04:31:00,
2013-08-13 23:32:00,52.4,45.4,30.15,NE,34,0.0,0.0,77,0.00,CLR,,0.00,WeatherDisplay:10.37,2013-08-14 04:32:00,
2013-08-13 23:34:00,52.3,45.3,30.16,NE,34,0.0,0.0,77,0.00,CLR,,0.00,WeatherDisplay:10.37,2013-08-14 04:34:00,
2013-08-13 23:37:00,52.3,45.3,30.16,NE,34,0.0,0.0,77,0.00,CLR,,0.00,WeatherDisplay:10.37,2013-08-14 04:37:00,
2013-08-13 23:39:00,52.1,45.1,30.16,NE,34,0.0,0.0,77,0.00,CLR,,0.00,WeatherDisplay:10.37,2013-08-14 04:39:00,
2013-08-13 23:40:00,52.1,45.4,30.16,NE,34,0.0,0.0,78,0.00,CLR,,0.00,WeatherDisplay:10.37,2013-08-14 04:40:00,
2013-08-13 23:42:00,52.0,45.4,30.16,NE,34,0.0,0.0,78,0.00,CLR,,0.00,WeatherDisplay:10.37,2013-08-14 04:42:00,
2013-08-13 23:43:00,52.0,45.4,30.15,NE,34,0.0,0.0,78,0.00,CLR,,0.00,WeatherDisplay:10.37,2013-08-14 04:43:00,
2013-08-13 23:44:00,52.0,45.7,30.16,NE,34,0.0,0.0,79,0.00,CLR,,0.00,WeatherDisplay:10.37,2013-08-14 04:44:00,
2013-08-13 23:45:00,52.0,45.7,30.16,NE,34,0.0,0.0,79,0.00,CLR,,0.00,WeatherDisplay:10.37,2013-08-14 04:45:00,
2013-08-13 23:47:00,51.9,45.6,30.16,NE,34,0.0,0.0,79,0.00,CLR,,0.00,WeatherDisplay:10.37,2013-08-14 04:47:00,
2013-08-13 23:48:00,51.9,45.6,30.16,NE,34,0.0,0.0,79,0.00,CLR,,0.00,WeatherDisplay:10.37,2013-08-14 04:48:00,
2013-08-13 23:49:00,51.8,45.5,30.16,NE,34,0.0,0.0,79,0.00,CLR,,0.00,WeatherDisplay:10.37,2013-08-14 04:49:00,
2013-08-13 23:50:00,51.8,45.5,30.16,NE,34,0.0,0.0,79,0.00,CLR,,0.00,WeatherDisplay:10.37,2013-08-14 04:50:00,
2013-08-13 23:52:00,51.8,45.8,30.16,NE,34,0.0,0.0,80,0.00,CLR,,0.00,WeatherDisplay:10.37,2013-08-14 04:52:00,
2013-08-13 23:53:00,51.7,45.7,30.16,NE,34,0.0,0.0,80,0.00,CLR,,0.00,WeatherDisplay:10.37,2013-08-14 04:53:00,
2013-08-13 23:54:00,51.8,45.8,30.16,NE,34,0.0,0.0,80,0.00,CLR,,0.00,WeatherDisplay:10.37,2013-08-14 04:54:00,
2013-08-13 23:55:00,51.7,45.7,30.16,NE,34,0.0,0.0,80,0.00,CLR,,0.00,WeatherDisplay:10.37,2013-08-14 04:55:00,
2013-08-13 23:57:00,51.7,45.7,30.16,NE,34,0.0,0.0,80,0.00,CLR,,0.00,WeatherDisplay:10.37,2013-08-14 04:57:00,
2013-08-13 23:58:00,51.7,45.7,30.16,NE,34,0.0,0.0,80,0.00,CLR,,0.00,WeatherDisplay:10.37,2013-08-14 04:58:00,
2013-08-13 23:59:00,51.7,45.7,30.16,NE,34,0.0,0.0,80,0.00,CLR,,0.00,WeatherDisplay:10.37,2013-08-14 04:59:00,